Time,TemperatureF,DewpointF,PressureIn,WindDirection,WindDirectionDegrees,WindSpeedMPH,WindSpeedGustMPH,Humidity,HourlyPrecipIn,Conditions,Clouds,dailyrainin,SoftwareType,DateUTC
2013-02-09 00:00:00,55.9,49.9,30.03,NNE,28,0.0,4.0,80,0.00,,SKC,0.00,VWS V13.01,2013-02-09 06:00:00,
2013-02-09 00:01:00,55.9,49.9,30.03,SE,145,0.0,2.7,80,0.00,,SKC,0.00,VWS V13.01,2013-02-09 06:01:00,
2013-02-09 00:02:00,55.9,49.9,30.03,North,350,3.6,5.8,80,0.00,,SKC,0.00,VWS V13.01,2013-02-09 06:02:00,
2013-02-09 00:03:00,55.9,49.9,30.03,ENE,62,3.1,3.6,80,0.00,,SKC,0.00,VWS V13.01,2013-02-09 06:03:00,
2013-02-09 00:04:00,55.9,49.9,30.03,NE,49,4.0,4.0,80,0.00,,SKC,0.00,VWS V13.01,2013-02-09 06:04:00,
2013-02-09 00:05:00,55.9,49.9,30.03,NNE,32,5.4,5.4,80,0.00,,SKC,0.00,VWS V13.01,2013-02-09 06:05:00,
2013-02-09 00:06:00,55.9,49.9,30.03,ENE,68,3.1,5.4,80,0.00,,SKC,0.00,VWS V13.01,2013-02-09 06:06:00,
2013-02-09 00:07:00,55.9,49.9,30.03,NE,45,5.8,5.8,80,0.00,,SKC,0.00,VWS V13.01,2013-02-09 06:07:00,
2013-02-09 00:08:00,55.9,49.9,30.03,ENE,57,3.6,6.3,80,0.00,,SKC,0.00,VWS V13.01,2013-02-09 06:08:00,
2013-02-09 00:09:00,55.8,49.7,30.03,NE,36,3.6,5.8,80,0.00,,SKC,0.00,VWS V13.01,2013-02-09 06:09:00,
2013-02-09 00:10:00,55.8,49.7,30.03,NNE,28,2.7,3.6,80,0.00,,SKC,0.00,VWS V13.01,2013-02-09 06:10:00,
2013-02-09 00:11:00,55.8,49.7,30.03,NE,39,3.1,4.0,80,0.00,,SKC,0.00,VWS V13.01,2013-02-09 06:11:00,
2013-02-09 00:12:00,55.8,49.7,30.03,NNE,32,3.1,6.3,80,0.00,,SKC,0.00,VWS V13.01,2013-02-09 06:12:00,
2013-02-09 00:13:00,55.8,49.7,30.03,NNE,28,5.8,5.8,80,0.00,,SKC,0.00,VWS V13.01,2013-02-09 06:13:00,
2013-02-09 00:14:00,55.8,49.7,30.03,NE,52,0.0,8.7,80,0.00,,SKC,0.00,VWS V13.01,2013-02-09 06:14:00,
2013-02-09 00:15:00,55.8,49.7,30.03,ENE,64,5.8,5.8,80,0.00,,SKC,0.00,VWS V13.01,2013-02-09 06:15:00,
2013-02-09 00:16:00,55.8,49.7,30.03,NE,44,8.1,8.1,80,0.00,,SKC,0.00,VWS V13.01,2013-02-09 06:16:00,
2013-02-09 00:17:00,55.6,49.5,30.03,NNE,24,3.1,8.1,80,0.00,,SKC,0.00,VWS V13.01,2013-02-09 06:17:00,
2013-02-09 00:18:00,55.6,49.5,30.03,East,79,6.3,6.3,80,0.00,,SKC,0.00,VWS V13.01,2013-02-09 06:18:00,
2013-02-09 00:19:00,55.6,49.5,30.03,ENE,77,0.0,6.3,80,0.00,,SKC,0.00,VWS V13.01,2013-02-09 06:19:00,
2013-02-09 00:20:00,55.6,49.5,30.03,NE,41,5.8,5.8,80,0.00,,SKC,0.00,VWS V13.01,2013-02-09 06:20:00,
2013-02-09 00:21:00,55.6,49.5,30.03,NE,37,5.4,5.8,80,0.00,,SKC,0.00,VWS V13.01,2013-02-09 06:21:00,
2013-02-09 00:22:00,55.6,49.5,30.03,NE,39,3.6,5.4,80,0.00,,SKC,0.00,VWS V13.01,2013-02-09 06:22:00,
2013-02-09 00:23:00,55.4,49.3,30.03,North,359,3.6,6.3,80,0.00,,SKC,0.00,VWS V13.01,2013-02-09 06:23:00,
2013-02-09 00:24:00,55.4,49.3,30.03,NE,46,7.6,8.1,80,0.00,,SKC,0.00,VWS V13.01,2013-02-09 06:24:00,
2013-02-09 00:25:00,55.4,49.3,30.03,NE,43,8.3,8.3,80,0.00,,SKC,0.00,VWS V13.01,2013-02-09 06:25:00,
2013-02-09 00:26:00,55.4,49.3,30.03,NNE,14,11.0,11.0,80,0.00,,SKC,0.00,VWS V13.01,2013-02-09 06:26:00,
2013-02-09 00:27:00,55.4,49.3,30.03,NNW,342,5.8,11.0,80,0.00,,SKC,0.00,VWS V13.01,2013-02-09 06:27:00,
2013-02-09 00:28:00,55.4,49.3,30.03,NNE,28,6.3,10.1,80,0.00,,SKC,0.00,VWS V13.01,2013-02-09 06:28:00,
2013-02-09 00:29:00,55.4,49.3,30.03,NNE,32,5.4,6.3,80,0.00,,SKC,0.00,VWS V13.01,2013-02-09 06:29:00,
2013-02-09 00:30:00,55.4,49.3,30.03,NNE,28,8.1,8.1,80,0.00,,SKC,0.00,VWS V13.01,2013-02-09 06:30:00,
2013-02-09 00:31:00,55.4,49.3,30.03,NE,45,4.0,8.1,80,0.00,,SKC,0.00,VWS V13.01,2013-02-09 06:31:00,
2013-02-09 00:32:00,55.4,49.3,30.03,NE,39,3.6,6.3,80,0.00,,SKC,0.00,VWS V13.01,2013-02-09 06:32:00,
2013-02-09 00:33:00,55.4,49.3,30.03,ENE,69,5.4,6.3,80,0.00,,SKC,0.00,VWS V13.01,2013-02-09 06:33:00,
2013-02-09 00:34:00,55.2,49.2,30.03,North,355,6.3,11.0,80,0.00,,SKC,0.00,VWS V13.01,2013-02-09 06:34:00,
2013-02-09 00:35:00,55.2,49.5,30.03,NE,53,4.0,6.3,81,0.00,,SKC,0.00,VWS V13.01,2013-02-09 06:35:00,
2013-02-09 00:36:00,55.2,49.5,30.03,NNE,32,3.6,5.8,81,0.00,,SKC,0.00,VWS V13.01,2013-02-09 06:36:00,
2013-02-09 00:37:00,55.2,49.2,30.03,NE,51,8.7,8.7,80,0.00,,SKC,0.00,VWS V13.01,2013-02-09 06:37:00,
2013-02-09 00:38:00,55.2,49.5,30.03,ENE,64,7.6,8.7,81,0.00,,SKC,0.00,VWS V13.01,2013-02-09 06:38:00,
2013-02-09 00:39:00,55.2,49.5,30.03,NE,42,5.8,7.6,81,0.00,,SKC,0.00,VWS V13.01,2013-02-09 06:39:00,
2013-02-09 00:40:00,55.2,49.5,30.03,NNE,23,4.0,5.8,81,0.00,,SKC,0.00,VWS V13.01,2013-02-09 06:40:00,
2013-02-09 00:41:00,55.0,49.3,30.03,NNE,32,4.0,5.8,81,0.00,,SKC,0.00,VWS V13.01,2013-02-09 06:41:00,
2013-02-09 00:42:00,55.0,49.3,30.03,North,6,3.6,4.0,81,0.00,,SKC,0.00,VWS V13.01,2013-02-09 06:42:00,
2013-02-09 00:43:00,55.0,49.3,30.03,NE,54,3.1,5.4,81,0.00,,SKC,0.00,VWS V13.01,2013-02-09 06:43:00,
2013-02-09 00:44:00,55.0,49.3,30.03,ENE,64,0.0,3.1,81,0.00,,SKC,0.00,VWS V13.01,2013-02-09 06:44:00,
2013-02-09 00:45:00,55.0,49.3,30.03,NNE,24,3.1,6.3,81,0.00,,SKC,0.00,VWS V13.01,2013-02-09 06:45:00,
2013-02-09 00:46:00,55.0,49.3,30.03,NNE,32,5.8,5.8,81,0.00,,SKC,0.00,VWS V13.01,2013-02-09 06:46:00,
2013-02-09 00:47:00,55.0,49.3,30.03,NE,47,5.4,5.8,81,0.00,,SKC,0.00,VWS V13.01,2013-02-09 06:47:00,
2013-02-09 00:48:00,54.9,49.2,30.03,ENE,69,4.0,5.8,81,0.00,,SKC,0.00,VWS V13.01,2013-02-09 06:48:00,
2013-02-09 00:49:00,54.9,49.2,30.03,NE,39,3.6,5.8,81,0.00,,SKC,0.00,VWS V13.01,2013-02-09 06:49:00,
2013-02-09 00:50:00,54.9,49.2,30.03,ENE,69,2.7,5.4,81,0.00,,SKC,0.00,VWS V13.01,2013-02-09 06:50:00,
2013-02-09 00:51:00,54.9,49.2,30.03,ENE,63,4.0,5.8,81,0.00,,SKC,0.00,VWS V13.01,2013-02-09 06:51:00,
2013-02-09 00:52:00,54.9,49.2,30.03,NE,47,5.8,6.3,81,0.00,,SKC,0.00,VWS V13.01,2013-02-09 06:52:00,
2013-02-09 00:53:00,54.9,49.2,30.03,ENE,58,3.6,5.8,81,0.00,,SKC,0.00,VWS V13.01,2013-02-09 06:53:00,
2013-02-09 00:54:00,54.9,49.2,30.03,ENE,71,3.6,3.6,81,0.00,,SKC,0.00,VWS V13.01,2013-02-09 06:54:00,
2013-02-09 00:55:00,54.9,49.2,30.03,NNE,18,6.3,6.3,81,0.00,,SKC,0.00,VWS V13.01,2013-02-09 06:55:00,
2013-02-09 00:56:00,54.7,49.0,30.03,NE,47,4.9,7.6,81,0.00,,SKC,0.00,VWS V13.01,2013-02-09 06:56:00,
2013-02-09 00:57:00,54.7,49.0,30.03,NE,38,4.0,4.9,81,0.00,,SKC,0.00,VWS V13.01,2013-02-09 06:57:00,
2013-02-09 00:58:00,54.7,49.0,30.03,NE,35,4.9,4.9,81,0.00,,SKC,0.00,VWS V13.01,2013-02-09 06:58:00,
2013-02-09 00:59:00,54.7,49.0,30.03,ENE,71,4.0,5.4,81,0.00,,SKC,0.00,VWS V13.01,2013-02-09 06:59:00,
2013-02-09 01:00:00,54.7,49.3,30.03,NNE,32,3.6,4.0,82,0.00,,SKC,0.00,VWS V13.01,2013-02-09 07:00:00,
2013-02-09 01:01:00,54.7,49.3,30.03,NNE,20,3.6,4.9,82,0.00,,SKC,0.00,VWS V13.01,2013-02-09 07:01:00,
2013-02-09 01:02:00,54.7,49.0,30.03,NE,54,5.8,6.7,81,0.00,,SKC,0.00,VWS V13.01,2013-02-09 07:02:00,
2013-02-09 01:03:00,54.7,49.3,30.03,East,87,2.7,5.8,82,0.00,,SKC,0.00,VWS V13.01,2013-02-09 07:03:00,
2013-02-09 01:04:00,54.7,49.3,30.03,NNE,25,3.6,4.0,82,0.00,,SKC,0.00,VWS V13.01,2013-02-09 07:04:00,
2013-02-09 01:05:00,54.7,49.3,30.03,NNE,32,2.7,5.8,82,0.00,,SKC,0.00,VWS V13.01,2013-02-09 07:05:00,
2013-02-09 01:06:00,54.7,49.0,30.03,NE,40,2.7,2.7,81,0.00,,SKC,0.00,VWS V13.01,2013-02-09 07:06:00,
2013-02-09 01:07:00,54.7,49.0,30.03,NE,35,0.0,5.8,81,0.00,,SKC,0.00,VWS V13.01,2013-02-09 07:07:00,
2013-02-09 01:08:00,54.7,49.0,30.03,NE,39,4.9,4.9,81,0.00,,SKC,0.00,VWS V13.01,2013-02-09 07:08:00,
2013-02-09 01:09:00,54.7,49.3,30.03,NE,56,4.9,5.8,82,0.00,,SKC,0.00,VWS V13.01,2013-02-09 07:09:00,
2013-02-09 01:10:00,54.7,49.3,30.03,NNE,32,2.7,4.9,82,0.00,,SKC,0.00,VWS V13.01,2013-02-09 07:10:00,
2013-02-09 01:11:00,54.7,49.3,30.03,East,83,2.7,4.9,82,0.00,,SKC,0.00,VWS V13.01,2013-02-09 07:11:00,
2013-02-09 01:12:00,54.7,49.3,30.03,North,10,2.7,5.4,82,0.00,,SKC,0.00,VWS V13.01,2013-02-09 07:12:00,
2013-02-09 01:13:00,54.7,49.3,30.03,NNE,24,5.8,5.8,82,0.00,,SKC,0.00,VWS V13.01,2013-02-09 07:13:00,
2013-02-09 01:14:00,54.7,49.3,30.03,ENE,60,4.0,5.8,82,0.00,,SKC,0.00,VWS V13.01,2013-02-09 07:14:00,
2013-02-09 01:15:00,54.7,49.0,30.03,North,3,0.0,4.0,81,0.00,,SKC,0.00,VWS V13.01,2013-02-09 07:15:00,
2013-02-09 01:16:00,54.7,49.0,30.03,ENE,62,4.0,7.6,81,0.00,,SKC,0.00,VWS V13.01,2013-02-09 07:16:00,
2013-02-09 01:17:00,54.7,49.0,30.03,ENE,63,2.7,4.9,81,0.00,,SKC,0.00,VWS V13.01,2013-02-09 07:17:00,
2013-02-09 01:18:00,54.7,49.0,30.03,NE,47,3.6,4.9,81,0.00,,SKC,0.00,VWS V13.01,2013-02-09 07:18:00,
2013-02-09 01:19:00,54.7,49.3,30.03,ENE,73,5.8,8.1,82,0.00,,SKC,0.00,VWS V13.01,2013-02-09 07:19:00,
2013-02-09 01:20:00,54.7,49.3,30.03,NE,35,2.7,8.3,82,0.00,,SKC,0.00,VWS V13.01,2013-02-09 07:20:00,
2013-02-09 01:21:00,54.7,49.3,30.03,East,101,4.0,4.0,82,0.00,,SKC,0.00,VWS V13.01,2013-02-09 07:21:00,
2013-02-09 01:22:00,54.7,49.3,30.03,NNE,32,6.3,8.3,82,0.00,,SKC,0.00,VWS V13.01,2013-02-09 07:22:00,
2013-02-09 01:23:00,54.7,49.3,30.03,NE,42,5.8,6.3,82,0.00,,SKC,0.00,VWS V13.01,2013-02-09 07:23:00,
2013-02-09 01:24:00,54.7,49.3,30.03,North,356,6.3,6.3,82,0.00,,SKC,0.00,VWS V13.01,2013-02-09 07:24:00,
2013-02-09 01:25:00,54.7,49.3,30.03,East,85,3.6,6.3,82,0.00,,SKC,0.00,VWS V13.01,2013-02-09 07:25:00,
2013-02-09 01:26:00,54.7,49.3,30.03,NE,44,3.6,4.9,82,0.00,,SKC,0.00,VWS V13.01,2013-02-09 07:26:00,
2013-02-09 01:27:00,54.7,49.3,30.03,NE,48,6.3,7.2,82,0.00,,SKC,0.00,VWS V13.01,2013-02-09 07:27:00,
2013-02-09 01:28:00,54.7,49.3,30.03,North,5,3.6,6.3,82,0.00,,SKC,0.00,VWS V13.01,2013-02-09 07:28:00,
2013-02-09 01:29:00,54.7,49.3,30.03,East,86,5.4,5.4,82,0.00,,SKC,0.00,VWS V13.01,2013-02-09 07:29:00,
2013-02-09 01:30:00,54.7,49.3,30.03,East,81,4.5,10.1,82,0.00,,SKC,0.00,VWS V13.01,2013-02-09 07:30:00,
2013-02-09 01:31:00,54.7,49.3,30.03,NE,44,3.6,5.4,82,0.00,,SKC,0.00,VWS V13.01,2013-02-09 07:31:00,
2013-02-09 01:32:00,54.7,49.3,30.03,NNE,23,2.2,4.0,82,0.00,,SKC,0.00,VWS V13.01,2013-02-09 07:32:00,
2013-02-09 01:33:00,54.7,49.3,30.03,North,7,4.0,6.7,82,0.00,,SKC,0.00,VWS V13.01,2013-02-09 07:33:00,
2013-02-09 01:34:00,54.5,49.1,30.03,NE,48,2.2,4.0,82,0.00,,SKC,0.00,VWS V13.01,2013-02-09 07:34:00,
2013-02-09 01:35:00,54.5,49.1,30.03,East,84,0.0,2.2,82,0.00,,SKC,0.00,VWS V13.01,2013-02-09 07:35:00,
2013-02-09 01:36:00,54.5,49.1,30.03,ENE,67,0.0,4.9,82,0.00,,SKC,0.00,VWS V13.01,2013-02-09 07:36:00,
2013-02-09 01:37:00,54.5,49.1,30.03,East,81,4.9,4.9,82,0.00,,SKC,0.00,VWS V13.01,2013-02-09 07:37:00,
2013-02-09 01:38:00,54.5,49.1,30.03,ENE,63,6.3,6.3,82,0.00,,SKC,0.00,VWS V13.01,2013-02-09 07:38:00,
2013-02-09 01:39:00,54.5,49.1,30.03,East,83,4.0,6.3,82,0.00,,SKC,0.00,VWS V13.01,2013-02-09 07:39:00,
2013-02-09 01:40:00,54.5,49.1,30.03,NE,55,3.6,4.0,82,0.00,,SKC,0.00,VWS V13.01,2013-02-09 07:40:00,
2013-02-09 01:41:00,54.5,49.1,30.03,NE,35,0.0,5.4,82,0.00,,SKC,0.00,VWS V13.01,2013-02-09 07:41:00,
2013-02-09 01:42:00,54.5,49.1,30.03,NNE,28,4.0,4.0,82,0.00,,SKC,0.00,VWS V13.01,2013-02-09 07:42:00,
2013-02-09 01:43:00,54.5,49.1,30.03,NE,48,4.9,4.9,82,0.00,,SKC,0.00,VWS V13.01,2013-02-09 07:43:00,
2013-02-09 01:44:00,54.5,49.1,30.03,NNE,32,0.0,4.9,82,0.00,,SKC,0.00,VWS V13.01,2013-02-09 07:44:00,
2013-02-09 01:45:00,54.5,49.1,30.03,NNE,32,4.0,4.0,82,0.00,,SKC,0.00,VWS V13.01,2013-02-09 07:45:00,
2013-02-09 01:46:00,54.5,49.1,30.03,East,82,2.7,5.4,82,0.00,,SKC,0.00,VWS V13.01,2013-02-09 07:46:00,
2013-02-09 01:47:00,54.5,49.1,30.03,NNE,21,5.4,5.4,82,0.00,,SKC,0.00,VWS V13.01,2013-02-09 07:47:00,
2013-02-09 01:48:00,54.3,49.0,30.03,NE,40,0.0,5.4,82,0.00,,SKC,0.00,VWS V13.01,2013-02-09 07:48:00,
2013-02-09 01:49:00,54.3,49.0,30.03,NE,53,3.6,3.6,82,0.00,,SKC,0.00,VWS V13.01,2013-02-09 07:49:00,
2013-02-09 01:50:00,54.3,49.0,30.03,NNE,13,2.7,5.8,82,0.00,,SKC,0.00,VWS V13.01,2013-02-09 07:50:00,
2013-02-09 01:51:00,54.3,49.0,30.03,ENE,66,5.4,7.6,82,0.00,,SKC,0.00,VWS V13.01,2013-02-09 07:51:00,
2013-02-09 01:52:00,54.3,49.0,30.03,ENE,73,0.0,5.4,82,0.00,,SKC,0.00,VWS V13.01,2013-02-09 07:52:00,
2013-02-09 01:53:00,54.3,49.0,30.03,NE,50,4.9,4.9,82,0.00,,SKC,0.00,VWS V13.01,2013-02-09 07:53:00,
2013-02-09 01:54:00,54.3,49.0,30.03,NNE,32,4.0,5.4,82,0.00,,SKC,0.00,VWS V13.01,2013-02-09 07:54:00,
2013-02-09 01:55:00,54.3,49.0,30.03,NNE,28,0.0,4.0,82,0.00,,SKC,0.00,VWS V13.01,2013-02-09 07:55:00,
2013-02-09 01:56:00,54.3,49.0,30.03,NNE,28,0.0,2.7,82,0.00,,SKC,0.00,VWS V13.01,2013-02-09 07:56:00,
2013-02-09 01:57:00,54.3,48.6,30.03,NE,39,8.1,8.1,81,0.00,,SKC,0.00,VWS V13.01,2013-02-09 07:57:00,
2013-02-09 01:58:00,54.3,48.6,30.03,East,91,3.1,8.1,81,0.00,,SKC,0.00,VWS V13.01,2013-02-09 07:58:00,
2013-02-09 01:59:00,54.3,48.6,30.03,NNE,15,0.0,3.6,81,0.00,,SKC,0.00,VWS V13.01,2013-02-09 07:59:00,
2013-02-09 02:00:00,54.3,48.6,30.03,ENE,78,2.7,5.8,81,0.00,,SKC,0.00,VWS V13.01,2013-02-09 08:00:00,
2013-02-09 02:01:00,54.1,48.5,30.03,ESE,106,6.3,6.3,81,0.00,,SKC,0.00,VWS V13.01,2013-02-09 08:01:00,
2013-02-09 02:02:00,54.1,48.1,30.03,NE,42,4.0,6.3,80,0.00,,SKC,0.00,VWS V13.01,2013-02-09 08:02:00,
2013-02-09 02:03:00,54.1,48.5,30.03,East,81,2.7,4.0,81,0.00,,SKC,0.00,VWS V13.01,2013-02-09 08:03:00,
2013-02-09 02:04:00,54.1,48.1,30.03,NE,45,8.1,8.1,80,0.00,,SKC,0.00,VWS V13.01,2013-02-09 08:04:00,
2013-02-09 02:05:00,54.1,48.1,30.03,NE,53,5.8,8.1,80,0.00,,SKC,0.00,VWS V13.01,2013-02-09 08:05:00,
2013-02-09 02:06:00,54.1,48.1,30.03,North,9,3.6,5.8,80,0.00,,SKC,0.00,VWS V13.01,2013-02-09 08:06:00,
2013-02-09 02:07:00,54.1,48.1,30.03,NNE,17,3.6,3.6,80,0.00,,SKC,0.00,VWS V13.01,2013-02-09 08:07:00,
2013-02-09 02:08:00,54.1,48.1,30.03,ENE,58,3.1,5.4,80,0.00,,SKC,0.00,VWS V13.01,2013-02-09 08:08:00,
2013-02-09 02:09:00,54.1,48.1,30.03,NE,42,4.9,5.4,80,0.00,,SKC,0.00,VWS V13.01,2013-02-09 08:09:00,
2013-02-09 02:10:00,54.0,47.9,30.03,ENE,69,4.0,4.9,80,0.00,,SKC,0.00,VWS V13.01,2013-02-09 08:10:00,
2013-02-09 02:11:00,54.0,47.9,30.03,NNE,23,5.4,5.4,80,0.00,,SKC,0.00,VWS V13.01,2013-02-09 08:11:00,
2013-02-09 02:12:00,54.0,47.9,30.03,ENE,62,6.3,6.7,80,0.00,,SKC,0.00,VWS V13.01,2013-02-09 08:12:00,
2013-02-09 02:13:00,54.0,47.9,30.03,ENE,60,3.1,6.3,80,0.00,,SKC,0.00,VWS V13.01,2013-02-09 08:13:00,
2013-02-09 02:14:00,54.0,47.9,30.03,NE,53,5.8,5.8,80,0.00,,SKC,0.00,VWS V13.01,2013-02-09 08:14:00,
2013-02-09 02:15:00,54.0,47.6,30.03,NE,35,5.8,5.8,79,0.00,,SKC,0.00,VWS V13.01,2013-02-09 08:15:00,
2013-02-09 02:16:00,54.0,47.6,30.03,NNW,333,2.2,5.8,79,0.00,,SKC,0.00,VWS V13.01,2013-02-09 08:16:00,
2013-02-09 02:17:00,54.0,47.6,30.03,East,95,5.8,5.8,79,0.00,,SKC,0.00,VWS V13.01,2013-02-09 08:17:00,
2013-02-09 02:18:00,53.8,47.4,30.03,NE,42,7.6,7.6,79,0.00,,SKC,0.00,VWS V13.01,2013-02-09 08:18:00,
2013-02-09 02:19:00,54.0,47.3,30.03,NE,48,6.3,7.6,78,0.00,,SKC,0.00,VWS V13.01,2013-02-09 08:19:00,
2013-02-09 02:20:00,54.0,47.3,30.03,NNE,14,3.6,6.3,78,0.00,,SKC,0.00,VWS V13.01,2013-02-09 08:20:00,
2013-02-09 02:21:00,54.0,47.6,30.03,NE,35,4.0,4.9,79,0.00,,SKC,0.00,VWS V13.01,2013-02-09 08:21:00,
2013-02-09 02:22:00,54.0,47.3,30.03,NE,39,4.9,4.9,78,0.00,,SKC,0.00,VWS V13.01,2013-02-09 08:22:00,
2013-02-09 02:23:00,54.0,47.6,30.03,ENE,72,3.1,5.4,79,0.00,,SKC,0.00,VWS V13.01,2013-02-09 08:23:00,
2013-02-09 02:24:00,53.8,47.1,30.03,NE,53,3.6,7.6,78,0.00,,SKC,0.00,VWS V13.01,2013-02-09 08:24:00,
2013-02-09 02:25:00,53.8,47.1,30.03,East,94,4.9,4.9,78,0.00,,SKC,0.00,VWS V13.01,2013-02-09 08:25:00,
2013-02-09 02:26:00,53.8,47.1,30.03,NE,56,2.7,6.3,78,0.00,,SKC,0.00,VWS V13.01,2013-02-09 08:26:00,
2013-02-09 02:27:00,53.8,47.1,30.03,ENE,69,3.6,5.4,78,0.00,,SKC,0.00,VWS V13.01,2013-02-09 08:27:00,
2013-02-09 02:28:00,53.8,46.8,30.03,NE,35,7.6,8.3,77,0.00,,SKC,0.00,VWS V13.01,2013-02-09 08:28:00,
2013-02-09 02:29:00,53.8,46.8,30.03,ENE,61,5.8,7.6,77,0.00,,SKC,0.00,VWS V13.01,2013-02-09 08:29:00,
2013-02-09 02:30:00,53.6,46.6,30.03,East,94,5.4,5.8,77,0.00,,SKC,0.00,VWS V13.01,2013-02-09 08:30:00,
2013-02-09 02:31:00,53.6,46.9,30.03,ENE,74,2.7,5.4,78,0.00,,SKC,0.00,VWS V13.01,2013-02-09 08:31:00,
2013-02-09 02:32:00,53.6,47.3,30.03,ENE,70,4.0,4.0,79,0.00,,SKC,0.00,VWS V13.01,2013-02-09 08:32:00,
2013-02-09 02:33:00,53.6,46.9,30.03,ENE,66,5.4,7.6,78,0.00,,SKC,0.00,VWS V13.01,2013-02-09 08:33:00,
2013-02-09 02:34:00,53.4,47.1,30.03,ENE,63,2.7,6.3,79,0.00,,SKC,0.00,VWS V13.01,2013-02-09 08:34:00,
2013-02-09 02:35:00,53.4,47.1,30.03,ENE,62,4.9,8.1,79,0.00,,SKC,0.00,VWS V13.01,2013-02-09 08:35:00,
2013-02-09 02:36:00,53.4,47.1,30.03,East,88,7.6,8.1,79,0.00,,SKC,0.00,VWS V13.01,2013-02-09 08:36:00,
2013-02-09 02:37:00,53.4,47.1,30.03,NNE,32,5.4,7.6,79,0.00,,SKC,0.00,VWS V13.01,2013-02-09 08:37:00,
2013-02-09 02:38:00,53.4,47.1,30.03,ENE,74,2.7,5.4,79,0.00,,SKC,0.00,VWS V13.01,2013-02-09 08:38:00,
2013-02-09 02:39:00,53.4,47.4,30.03,NE,56,3.1,7.6,80,0.00,,SKC,0.00,VWS V13.01,2013-02-09 08:39:00,
2013-02-09 02:40:00,53.4,47.4,30.03,NE,56,3.6,4.9,80,0.00,,SKC,0.00,VWS V13.01,2013-02-09 08:40:00,
2013-02-09 02:41:00,53.4,47.4,30.03,ENE,63,5.4,5.4,80,0.00,,SKC,0.00,VWS V13.01,2013-02-09 08:41:00,
2013-02-09 02:42:00,53.4,47.4,30.03,NE,51,5.4,6.3,80,0.00,,SKC,0.00,VWS V13.01,2013-02-09 08:42:00,
2013-02-09 02:43:00,53.4,47.4,30.03,NNE,28,4.0,5.8,80,0.00,,SKC,0.00,VWS V13.01,2013-02-09 08:43:00,
2013-02-09 02:44:00,53.4,47.1,30.03,NE,37,2.2,4.0,79,0.00,,SKC,0.00,VWS V13.01,2013-02-09 08:44:00,
2013-02-09 02:45:00,53.4,47.4,30.03,NNE,25,2.7,3.1,80,0.00,,SKC,0.00,VWS V13.01,2013-02-09 08:45:00,
2013-02-09 02:46:00,53.4,47.4,30.03,NE,55,4.5,5.4,80,0.00,,SKC,0.00,VWS V13.01,2013-02-09 08:46:00,
2013-02-09 02:47:00,53.4,47.4,30.03,ENE,60,3.1,5.4,80,0.00,,SKC,0.00,VWS V13.01,2013-02-09 08:47:00,
2013-02-09 02:48:00,53.4,47.4,30.03,ENE,71,3.6,6.3,80,0.00,,SKC,0.00,VWS V13.01,2013-02-09 08:48:00,
2013-02-09 02:49:00,53.2,47.2,30.03,ENE,73,3.6,5.8,80,0.00,,SKC,0.00,VWS V13.01,2013-02-09 08:49:00,
2013-02-09 02:50:00,53.2,47.2,30.03,ENE,67,2.7,5.4,80,0.00,,SKC,0.00,VWS V13.01,2013-02-09 08:50:00,
2013-02-09 02:51:00,53.2,47.2,30.03,NE,43,4.5,4.5,80,0.00,,SKC,0.00,VWS V13.01,2013-02-09 08:51:00,
2013-02-09 02:52:00,53.2,47.2,30.03,ENE,76,3.1,5.4,80,0.00,,SKC,0.00,VWS V13.01,2013-02-09 08:52:00,
2013-02-09 02:53:00,53.2,47.2,30.03,NE,47,4.0,4.0,80,0.00,,SKC,0.00,VWS V13.01,2013-02-09 08:53:00,
2013-02-09 02:54:00,53.1,47.1,30.03,NE,55,0.0,4.0,80,0.00,,SKC,0.00,VWS V13.01,2013-02-09 08:54:00,
2013-02-09 02:55:00,53.1,47.1,30.03,NE,54,0.0,0.0,80,0.00,,SKC,0.00,VWS V13.01,2013-02-09 08:55:00,
2013-02-09 02:56:00,53.1,47.1,30.03,ENE,67,3.6,3.6,80,0.00,,SKC,0.00,VWS V13.01,2013-02-09 08:56:00,
2013-02-09 02:57:00,53.1,47.1,30.03,NE,45,3.1,5.4,80,0.00,,SKC,0.00,VWS V13.01,2013-02-09 08:57:00,
2013-02-09 02:58:00,53.1,47.1,30.03,ENE,62,4.9,8.1,80,0.00,,SKC,0.00,VWS V13.01,2013-02-09 08:58:00,
2013-02-09 02:59:00,52.9,46.9,30.03,NE,49,3.6,5.4,80,0.00,,SKC,0.00,VWS V13.01,2013-02-09 08:59:00,
2013-02-09 03:00:00,52.9,47.2,30.03,ESE,112,4.0,6.3,81,0.00,,SKC,0.00,VWS V13.01,2013-02-09 09:00:00,
2013-02-09 03:01:00,52.9,47.2,30.03,NE,42,3.6,7.6,81,0.00,,SKC,0.00,VWS V13.01,2013-02-09 09:01:00,
2013-02-09 03:02:00,52.9,47.2,30.03,East,91,0.0,5.8,81,0.00,,SKC,0.00,VWS V13.01,2013-02-09 09:02:00,
2013-02-09 03:03:00,52.9,47.2,30.03,ENE,70,4.0,4.0,81,0.00,,SKC,0.00,VWS V13.01,2013-02-09 09:03:00,
2013-02-09 03:04:00,52.9,47.2,30.03,East,86,4.5,5.8,81,0.00,,SKC,0.00,VWS V13.01,2013-02-09 09:04:00,
2013-02-09 03:05:00,52.9,47.2,30.03,NNE,32,0.0,4.5,81,0.00,,SKC,0.00,VWS V13.01,2013-02-09 09:05:00,
2013-02-09 03:06:00,52.7,47.0,30.03,East,88,2.2,2.2,81,0.00,,SKC,0.00,VWS V13.01,2013-02-09 09:06:00,
2013-02-09 03:07:00,52.7,47.0,30.03,ENE,73,3.6,4.0,81,0.00,,SKC,0.00,VWS V13.01,2013-02-09 09:07:00,
2013-02-09 03:08:00,52.7,47.0,30.03,ESE,103,2.7,3.6,81,0.00,,SKC,0.00,VWS V13.01,2013-02-09 09:08:00,
2013-02-09 03:09:00,52.7,47.0,30.03,East,86,3.6,5.8,81,0.00,,SKC,0.00,VWS V13.01,2013-02-09 09:09:00,
2013-02-09 03:10:00,52.7,47.0,30.03,East,81,5.8,5.8,81,0.00,,SKC,0.00,VWS V13.01,2013-02-09 09:10:00,
2013-02-09 03:11:00,52.7,47.0,30.03,East,85,3.6,5.8,81,0.00,,SKC,0.00,VWS V13.01,2013-02-09 09:11:00,
2013-02-09 03:12:00,52.7,47.0,30.03,East,83,2.7,4.0,81,0.00,,SKC,0.00,VWS V13.01,2013-02-09 09:12:00,
2013-02-09 03:13:00,52.7,47.0,30.03,ENE,78,2.7,6.3,81,0.00,,SKC,0.00,VWS V13.01,2013-02-09 09:13:00,
2013-02-09 03:14:00,52.7,47.0,30.03,NNE,18,3.6,5.8,81,0.00,,SKC,0.00,VWS V13.01,2013-02-09 09:14:00,
2013-02-09 03:15:00,52.7,47.0,30.03,NE,55,7.6,7.6,81,0.00,,SKC,0.00,VWS V13.01,2013-02-09 09:15:00,
2013-02-09 03:16:00,52.7,47.0,30.03,ENE,61,2.7,7.6,81,0.00,,SKC,0.00,VWS V13.01,2013-02-09 09:16:00,
2013-02-09 03:17:00,52.7,47.0,30.03,East,93,4.9,5.4,81,0.00,,SKC,0.00,VWS V13.01,2013-02-09 09:17:00,
2013-02-09 03:18:00,52.7,47.0,30.03,ESE,105,2.7,4.9,81,0.00,,SKC,0.00,VWS V13.01,2013-02-09 09:18:00,
2013-02-09 03:19:00,52.5,46.9,30.03,NE,46,2.7,5.4,81,0.00,,SKC,0.00,VWS V13.01,2013-02-09 09:19:00,
2013-02-09 03:20:00,52.5,46.9,30.03,ENE,61,3.1,4.0,81,0.00,,SKC,0.00,VWS V13.01,2013-02-09 09:20:00,
2013-02-09 03:21:00,52.5,46.9,30.03,NE,41,4.0,4.0,81,0.00,,SKC,0.00,VWS V13.01,2013-02-09 09:21:00,
2013-02-09 03:22:00,52.5,46.9,30.03,ENE,67,4.0,6.3,81,0.00,,SKC,0.00,VWS V13.01,2013-02-09 09:22:00,
2013-02-09 03:23:00,52.5,46.9,30.03,East,94,5.8,5.8,81,0.00,,SKC,0.00,VWS V13.01,2013-02-09 09:23:00,
2013-02-09 03:24:00,52.5,46.9,30.03,NE,44,5.4,5.8,81,0.00,,SKC,0.00,VWS V13.01,2013-02-09 09:24:00,
2013-02-09 03:25:00,52.3,46.7,30.03,ESE,104,3.6,5.4,81,0.00,,SKC,0.00,VWS V13.01,2013-02-09 09:25:00,
2013-02-09 03:26:00,52.3,46.7,30.03,ENE,66,2.7,3.6,81,0.00,,SKC,0.00,VWS V13.01,2013-02-09 09:26:00,
2013-02-09 03:27:00,52.3,46.7,30.03,ENE,68,3.6,5.8,81,0.00,,SKC,0.00,VWS V13.01,2013-02-09 09:27:00,
2013-02-09 03:28:00,52.3,46.7,30.03,ENE,59,4.0,7.6,81,0.00,,SKC,0.00,VWS V13.01,2013-02-09 09:28:00,
2013-02-09 03:29:00,52.3,46.7,30.03,ENE,66,2.2,4.9,81,0.00,,SKC,0.00,VWS V13.01,2013-02-09 09:29:00,
2013-02-09 03:30:00,52.2,46.8,30.03,NE,49,5.4,5.8,82,0.00,,SKC,0.00,VWS V13.01,2013-02-09 09:30:00,
2013-02-09 03:31:00,52.2,46.8,30.03,NE,45,3.6,5.4,82,0.00,,SKC,0.00,VWS V13.01,2013-02-09 09:31:00,
2013-02-09 03:32:00,52.2,46.8,30.03,ENE,69,3.1,4.0,82,0.00,,SKC,0.00,VWS V13.01,2013-02-09 09:32:00,
2013-02-09 03:33:00,52.2,46.8,30.03,East,83,2.7,3.6,82,0.00,,SKC,0.00,VWS V13.01,2013-02-09 09:33:00,
2013-02-09 03:34:00,52.2,46.8,30.03,NE,37,4.0,5.4,82,0.00,,SKC,0.00,VWS V13.01,2013-02-09 09:34:00,
2013-02-09 03:35:00,52.2,46.8,30.03,ENE,57,4.0,5.4,82,0.00,,SKC,0.00,VWS V13.01,2013-02-09 09:35:00,
2013-02-09 03:36:00,52.0,46.7,30.03,ENE,59,0.0,5.8,82,0.00,,SKC,0.00,VWS V13.01,2013-02-09 09:36:00,
2013-02-09 03:37:00,52.0,46.7,30.03,East,96,0.0,2.2,82,0.00,,SKC,0.00,VWS V13.01,2013-02-09 09:37:00,
2013-02-09 03:38:00,52.0,46.7,30.03,NNE,32,0.0,0.0,82,0.00,,SKC,0.00,VWS V13.01,2013-02-09 09:38:00,
2013-02-09 03:39:00,52.0,46.7,30.03,NE,35,2.2,2.7,82,0.00,,SKC,0.00,VWS V13.01,2013-02-09 09:39:00,
2013-02-09 03:40:00,52.0,46.7,30.03,NE,35,0.0,2.7,82,0.00,,SKC,0.00,VWS V13.01,2013-02-09 09:40:00,
2013-02-09 03:41:00,51.8,46.5,30.03,NNE,32,0.0,2.2,82,0.00,,SKC,0.00,VWS V13.01,2013-02-09 09:41:00,
2013-02-09 03:42:00,51.8,46.5,30.03,NE,35,0.0,0.0,82,0.00,,SKC,0.00,VWS V13.01,2013-02-09 09:42:00,
2013-02-09 03:43:00,51.8,46.5,30.03,East,79,3.1,3.1,82,0.00,,SKC,0.00,VWS V13.01,2013-02-09 09:43:00,
2013-02-09 03:44:00,51.8,46.5,30.03,East,87,3.1,7.6,82,0.00,,SKC,0.00,VWS V13.01,2013-02-09 09:44:00,
2013-02-09 03:45:00,51.8,46.5,30.03,NE,46,5.8,6.3,82,0.00,,SKC,0.00,VWS V13.01,2013-02-09 09:45:00,
2013-02-09 03:46:00,51.8,46.5,30.03,East,82,2.7,5.8,82,0.00,,SKC,0.00,VWS V13.01,2013-02-09 09:46:00,
2013-02-09 03:47:00,51.8,46.5,30.03,ENE,70,6.3,6.3,82,0.00,,SKC,0.00,VWS V13.01,2013-02-09 09:47:00,
2013-02-09 03:48:00,51.8,46.5,30.03,NE,50,2.7,6.3,82,0.00,,SKC,0.00,VWS V13.01,2013-02-09 09:48:00,
2013-02-09 03:49:00,51.8,46.5,30.03,ENE,75,7.6,7.6,82,0.00,,SKC,0.00,VWS V13.01,2013-02-09 09:49:00,
2013-02-09 03:50:00,51.8,46.5,30.03,NE,43,3.1,7.6,82,0.00,,SKC,0.00,VWS V13.01,2013-02-09 09:50:00,
2013-02-09 03:51:00,51.6,46.3,30.03,NNE,32,0.0,4.5,82,0.00,,SKC,0.00,VWS V13.01,2013-02-09 09:51:00,
2013-02-09 03:52:00,51.6,46.3,30.03,ENE,57,6.3,7.6,82,0.00,,SKC,0.00,VWS V13.01,2013-02-09 09:52:00,
2013-02-09 03:53:00,51.6,46.6,30.03,NE,47,0.0,6.3,83,0.00,,SKC,0.00,VWS V13.01,2013-02-09 09:53:00,
2013-02-09 03:54:00,51.6,46.6,30.03,ENE,57,2.7,2.7,83,0.00,,SKC,0.00,VWS V13.01,2013-02-09 09:54:00,
2013-02-09 03:55:00,51.6,46.6,30.03,NE,55,0.0,2.7,83,0.00,,SKC,0.00,VWS V13.01,2013-02-09 09:55:00,
2013-02-09 03:56:00,51.6,46.6,30.03,ENE,69,3.6,3.6,83,0.00,,SKC,0.00,VWS V13.01,2013-02-09 09:56:00,
2013-02-09 03:57:00,51.6,46.6,30.03,NE,41,7.6,7.6,83,0.00,,SKC,0.00,VWS V13.01,2013-02-09 09:57:00,
2013-02-09 03:58:00,51.6,46.6,30.03,NE,47,5.4,7.6,83,0.00,,SKC,0.00,VWS V13.01,2013-02-09 09:58:00,
2013-02-09 03:59:00,51.4,46.5,30.03,NNE,23,0.0,5.4,83,0.00,,SKC,0.00,VWS V13.01,2013-02-09 09:59:00,
2013-02-09 04:00:00,51.4,46.5,30.03,ENE,58,0.0,0.0,83,0.00,,SKC,0.00,VWS V13.01,2013-02-09 10:00:00,
2013-02-09 04:01:00,51.4,46.5,30.03,NNE,28,2.7,3.6,83,0.00,,SKC,0.00,VWS V13.01,2013-02-09 10:01:00,
2013-02-09 04:02:00,51.4,46.5,30.03,NNE,21,0.0,2.7,83,0.00,,SKC,0.00,VWS V13.01,2013-02-09 10:02:00,
2013-02-09 04:03:00,51.4,46.5,30.03,NE,42,3.6,3.6,83,0.00,,SKC,0.00,VWS V13.01,2013-02-09 10:03:00,
2013-02-09 04:04:00,51.4,46.5,30.03,ENE,58,2.7,3.6,83,0.00,,SKC,0.00,VWS V13.01,2013-02-09 10:04:00,
2013-02-09 04:05:00,51.4,46.5,30.03,NE,36,3.1,3.1,83,0.00,,SKC,0.00,VWS V13.01,2013-02-09 10:05:00,
2013-02-09 04:06:00,51.3,46.3,30.03,NNE,25,5.8,5.8,83,0.00,,SKC,0.00,VWS V13.01,2013-02-09 10:06:00,
2013-02-09 04:07:00,51.3,46.3,30.03,NE,46,5.8,6.7,83,0.00,,SKC,0.00,VWS V13.01,2013-02-09 10:07:00,
2013-02-09 04:08:00,51.3,46.3,30.03,NNE,18,4.0,5.8,83,0.00,,SKC,0.00,VWS V13.01,2013-02-09 10:08:00,
2013-02-09 04:09:00,51.1,46.1,30.03,NNE,28,2.7,4.0,83,0.00,,SKC,0.00,VWS V13.01,2013-02-09 10:09:00,
2013-02-09 04:10:00,51.1,46.1,30.03,NE,45,4.0,4.0,83,0.00,,SKC,0.00,VWS V13.01,2013-02-09 10:10:00,
2013-02-09 04:11:00,51.1,46.1,30.03,NE,47,0.0,4.0,83,0.00,,SKC,0.00,VWS V13.01,2013-02-09 10:11:00,
2013-02-09 04:12:00,51.1,46.4,30.03,NE,47,0.0,0.0,84,0.00,,SKC,0.00,VWS V13.01,2013-02-09 10:12:00,
2013-02-09 04:13:00,51.1,46.4,30.03,NE,55,2.7,3.6,84,0.00,,SKC,0.00,VWS V13.01,2013-02-09 10:13:00,
2013-02-09 04:14:00,51.1,46.4,30.03,NNE,32,2.2,3.6,84,0.00,,SKC,0.00,VWS V13.01,2013-02-09 10:14:00,
2013-02-09 04:15:00,51.1,46.4,30.03,NNE,28,3.6,3.6,84,0.00,,SKC,0.00,VWS V13.01,2013-02-09 10:15:00,
2013-02-09 04:16:00,51.1,46.4,30.03,NE,40,4.0,4.0,84,0.00,,SKC,0.00,VWS V13.01,2013-02-09 10:16:00,
2013-02-09 04:17:00,51.1,46.1,30.03,NE,54,4.0,6.3,83,0.00,,SKC,0.00,VWS V13.01,2013-02-09 10:17:00,
2013-02-09 04:18:00,51.1,46.1,30.03,ENE,78,2.2,4.0,83,0.00,,SKC,0.00,VWS V13.01,2013-02-09 10:18:00,
2013-02-09 04:19:00,51.1,46.4,30.03,ENE,63,3.6,4.9,84,0.00,,SKC,0.00,VWS V13.01,2013-02-09 10:19:00,
2013-02-09 04:20:00,51.1,46.1,30.03,NNE,16,4.9,6.3,83,0.00,,SKC,0.00,VWS V13.01,2013-02-09 10:20:00,
2013-02-09 04:21:00,51.1,46.1,30.03,ENE,63,4.0,5.4,83,0.00,,SKC,0.00,VWS V13.01,2013-02-09 10:21:00,
2013-02-09 04:22:00,51.1,45.8,30.03,ENE,67,5.4,6.3,82,0.00,,SKC,0.00,VWS V13.01,2013-02-09 10:22:00,
2013-02-09 04:23:00,51.1,45.8,30.03,NE,35,7.2,7.6,82,0.00,,SKC,0.00,VWS V13.01,2013-02-09 10:23:00,
2013-02-09 04:24:00,51.1,45.8,30.03,East,80,3.6,7.2,82,0.00,,SKC,0.00,VWS V13.01,2013-02-09 10:24:00,
2013-02-09 04:25:00,51.1,45.8,30.03,ENE,70,0.0,3.6,82,0.00,,SKC,0.00,VWS V13.01,2013-02-09 10:25:00,
2013-02-09 04:26:00,51.1,46.1,30.03,ENE,70,0.0,0.0,83,0.00,,SKC,0.00,VWS V13.01,2013-02-09 10:26:00,
2013-02-09 04:27:00,51.1,46.1,30.03,ENE,72,3.6,3.6,83,0.00,,SKC,0.00,VWS V13.01,2013-02-09 10:27:00,
2013-02-09 04:28:00,51.1,46.1,30.03,ENE,72,4.0,6.3,83,0.00,,SKC,0.00,VWS V13.01,2013-02-09 10:28:00,
2013-02-09 04:29:00,51.1,46.1,30.03,NE,45,3.6,4.0,83,0.00,,SKC,0.00,VWS V13.01,2013-02-09 10:29:00,
2013-02-09 04:30:00,50.9,45.6,30.03,ENE,57,4.5,4.9,82,0.00,,SKC,0.00,VWS V13.01,2013-02-09 10:30:00,
2013-02-09 04:31:00,50.9,45.6,30.03,NE,35,0.0,4.5,82,0.00,,SKC,0.00,VWS V13.01,2013-02-09 10:31:00,
2013-02-09 04:32:00,50.9,45.6,30.03,ENE,68,2.7,4.0,82,0.00,,SKC,0.00,VWS V13.01,2013-02-09 10:32:00,
2013-02-09 04:33:00,50.9,45.6,30.03,NE,46,0.0,2.7,82,0.00,,SKC,0.00,VWS V13.01,2013-02-09 10:33:00,
2013-02-09 04:34:00,50.9,45.6,30.03,NE,36,4.9,4.9,82,0.00,,SKC,0.00,VWS V13.01,2013-02-09 10:34:00,
2013-02-09 04:35:00,50.7,45.4,30.03,ENE,68,3.6,5.8,82,0.00,,SKC,0.00,VWS V13.01,2013-02-09 10:35:00,
2013-02-09 04:36:00,50.7,45.4,30.03,NNE,23,3.6,4.9,82,0.00,,SKC,0.00,VWS V13.01,2013-02-09 10:36:00,
2013-02-09 04:37:00,50.7,45.4,30.03,ENE,73,4.0,5.8,82,0.00,,SKC,0.00,VWS V13.01,2013-02-09 10:37:00,
2013-02-09 04:38:00,50.7,45.4,30.03,SSE,160,3.1,4.0,82,0.00,,SKC,0.00,VWS V13.01,2013-02-09 10:38:00,
2013-02-09 04:39:00,50.5,45.3,30.03,NE,55,0.0,4.9,82,0.00,,SKC,0.00,VWS V13.01,2013-02-09 10:39:00,
2013-02-09 04:40:00,50.5,45.3,30.03,ENE,57,5.8,5.8,82,0.00,,SKC,0.00,VWS V13.01,2013-02-09 10:40:00,
2013-02-09 04:41:00,50.5,45.3,30.03,NE,36,4.9,6.3,82,0.00,,SKC,0.00,VWS V13.01,2013-02-09 10:41:00,
2013-02-09 04:42:00,50.5,45.3,30.03,East,94,2.7,4.9,82,0.00,,SKC,0.00,VWS V13.01,2013-02-09 10:42:00,
2013-02-09 04:43:00,50.5,45.3,30.03,ENE,63,3.1,3.6,82,0.00,,SKC,0.00,VWS V13.01,2013-02-09 10:43:00,
2013-02-09 04:44:00,50.5,45.3,30.03,NNE,18,3.6,4.9,82,0.00,,SKC,0.00,VWS V13.01,2013-02-09 10:44:00,
2013-02-09 04:45:00,50.5,45.3,30.03,NE,54,2.7,3.6,82,0.00,,SKC,0.00,VWS V13.01,2013-02-09 10:45:00,
2013-02-09 04:46:00,50.5,45.3,30.03,NE,53,3.1,5.8,82,0.00,,SKC,0.00,VWS V13.01,2013-02-09 10:46:00,
2013-02-09 04:47:00,50.5,45.3,30.03,NNE,24,3.1,3.1,82,0.00,,SKC,0.00,VWS V13.01,2013-02-09 10:47:00,
2013-02-09 04:48:00,50.5,45.3,30.03,ENE,75,2.7,3.1,82,0.00,,SKC,0.00,VWS V13.01,2013-02-09 10:48:00,
2013-02-09 04:49:00,50.5,45.3,30.03,East,79,0.0,5.8,82,0.00,,SKC,0.00,VWS V13.01,2013-02-09 10:49:00,
2013-02-09 04:50:00,50.5,45.3,30.03,NNE,32,2.7,2.7,82,0.00,,SKC,0.00,VWS V13.01,2013-02-09 10:50:00,
2013-02-09 04:51:00,50.5,45.3,30.03,NE,47,4.0,4.9,82,0.00,,SKC,0.00,VWS V13.01,2013-02-09 10:51:00,
2013-02-09 04:52:00,50.4,45.1,30.03,NE,56,3.1,7.2,82,0.00,,SKC,0.00,VWS V13.01,2013-02-09 10:52:00,
2013-02-09 04:53:00,50.4,45.1,30.03,ENE,67,3.1,3.1,82,0.00,,SKC,0.00,VWS V13.01,2013-02-09 10:53:00,
2013-02-09 04:54:00,50.4,45.1,30.03,East,91,5.8,5.8,82,0.00,,SKC,0.00,VWS V13.01,2013-02-09 10:54:00,
2013-02-09 04:55:00,50.4,45.1,30.03,North,11,0.0,5.8,82,0.00,,SKC,0.00,VWS V13.01,2013-02-09 10:55:00,
2013-02-09 04:56:00,50.4,45.1,30.03,ENE,78,4.0,4.0,82,0.00,,SKC,0.00,VWS V13.01,2013-02-09 10:56:00,
2013-02-09 04:57:00,50.4,45.1,30.03,ESE,119,4.0,4.9,82,0.00,,SKC,0.00,VWS V13.01,2013-02-09 10:57:00,
2013-02-09 04:58:00,50.2,44.9,30.03,East,88,3.6,6.3,82,0.00,,SKC,0.00,VWS V13.01,2013-02-09 10:58:00,
2013-02-09 04:59:00,50.2,44.9,30.03,ENE,58,3.1,3.6,82,0.00,,SKC,0.00,VWS V13.01,2013-02-09 10:59:00,
2013-02-09 05:00:00,50.4,45.1,30.03,North,8,5.8,5.8,82,0.00,,SKC,0.00,VWS V13.01,2013-02-09 11:00:00,
2013-02-09 05:01:00,50.2,44.9,30.03,ENE,76,5.4,6.3,82,0.00,,SKC,0.00,VWS V13.01,2013-02-09 11:01:00,
2013-02-09 05:02:00,50.2,44.9,30.03,ENE,58,3.6,6.3,82,0.00,,SKC,0.00,VWS V13.01,2013-02-09 11:02:00,
2013-02-09 05:03:00,50.2,44.9,30.03,NE,55,5.8,5.8,82,0.00,,SKC,0.00,VWS V13.01,2013-02-09 11:03:00,
2013-02-09 05:04:00,50.2,44.9,30.03,East,84,3.1,6.3,82,0.00,,SKC,0.00,VWS V13.01,2013-02-09 11:04:00,
2013-02-09 05:05:00,50.2,44.9,30.03,ENE,64,2.7,3.6,82,0.00,,SKC,0.00,VWS V13.01,2013-02-09 11:05:00,
2013-02-09 05:06:00,50.2,44.9,30.03,ENE,61,4.9,5.4,82,0.00,,SKC,0.00,VWS V13.01,2013-02-09 11:06:00,
2013-02-09 05:07:00,50.2,44.9,30.06,NE,35,3.6,4.9,82,0.00,,SKC,0.00,VWS V13.01,2013-02-09 11:07:00,
2013-02-09 05:08:00,50.2,44.9,30.06,East,80,2.7,4.0,82,0.00,,SKC,0.00,VWS V13.01,2013-02-09 11:08:00,
2013-02-09 05:09:00,50.2,44.9,30.06,East,91,3.1,3.6,82,0.00,,SKC,0.00,VWS V13.01,2013-02-09 11:09:00,
2013-02-09 05:10:00,50.2,44.9,30.06,ENE,69,3.6,8.3,82,0.00,,SKC,0.00,VWS V13.01,2013-02-09 11:10:00,
2013-02-09 05:11:00,50.0,44.7,30.06,ENE,70,3.1,3.6,82,0.00,,SKC,0.00,VWS V13.01,2013-02-09 11:11:00,
2013-02-09 05:12:00,50.0,44.7,30.06,ENE,72,3.1,3.1,82,0.00,,SKC,0.00,VWS V13.01,2013-02-09 11:12:00,
2013-02-09 05:13:00,50.0,44.7,30.06,NE,51,3.1,3.1,82,0.00,,SKC,0.00,VWS V13.01,2013-02-09 11:13:00,
2013-02-09 05:14:00,50.0,44.7,30.06,NNE,32,4.0,4.9,82,0.00,,SKC,0.00,VWS V13.01,2013-02-09 11:14:00,
2013-02-09 05:15:00,50.0,44.7,30.06,East,91,3.6,4.0,82,0.00,,SKC,0.00,VWS V13.01,2013-02-09 11:15:00,
2013-02-09 05:16:00,50.0,45.0,30.06,ENE,67,5.4,5.4,83,0.00,,SKC,0.00,VWS V13.01,2013-02-09 11:16:00,
2013-02-09 05:17:00,49.8,44.9,30.06,East,79,0.0,5.4,83,0.00,,SKC,0.00,VWS V13.01,2013-02-09 11:17:00,
2013-02-09 05:18:00,49.8,44.9,30.06,ENE,70,0.0,4.0,83,0.00,,SKC,0.00,VWS V13.01,2013-02-09 11:18:00,
2013-02-09 05:19:00,49.8,44.9,30.06,NNE,16,3.6,4.9,83,0.00,,SKC,0.00,VWS V13.01,2013-02-09 11:19:00,
2013-02-09 05:20:00,49.8,44.9,30.06,ENE,59,4.0,4.9,83,0.00,,SKC,0.00,VWS V13.01,2013-02-09 11:20:00,
2013-02-09 05:21:00,49.8,44.9,30.06,NNE,23,3.6,4.9,83,0.00,,SKC,0.00,VWS V13.01,2013-02-09 11:21:00,
2013-02-09 05:22:00,49.8,44.9,30.06,NE,50,6.3,6.7,83,0.00,,SKC,0.00,VWS V13.01,2013-02-09 11:22:00,
2013-02-09 05:23:00,49.8,44.9,30.06,East,82,5.4,6.3,83,0.00,,SKC,0.00,VWS V13.01,2013-02-09 11:23:00,
2013-02-09 05:24:00,49.8,44.9,30.06,ENE,69,7.6,7.6,83,0.00,,SKC,0.00,VWS V13.01,2013-02-09 11:24:00,
2013-02-09 05:25:00,49.8,44.9,30.06,ENE,62,3.1,7.6,83,0.00,,SKC,0.00,VWS V13.01,2013-02-09 11:25:00,
2013-02-09 05:26:00,49.8,44.9,30.06,East,100,3.6,4.0,83,0.00,,SKC,0.00,VWS V13.01,2013-02-09 11:26:00,
2013-02-09 05:27:00,49.8,44.9,30.06,ENE,62,4.0,5.8,83,0.00,,SKC,0.00,VWS V13.01,2013-02-09 11:27:00,
2013-02-09 05:28:00,49.6,44.7,30.06,ENE,69,4.0,4.0,83,0.00,,SKC,0.00,VWS V13.01,2013-02-09 11:28:00,
2013-02-09 05:29:00,49.6,44.7,30.06,East,82,3.6,4.0,83,0.00,,SKC,0.00,VWS V13.01,2013-02-09 11:29:00,
2013-02-09 05:30:00,49.6,45.0,30.06,NNE,32,5.4,5.8,84,0.00,,SKC,0.00,VWS V13.01,2013-02-09 11:30:00,
2013-02-09 05:31:00,49.6,44.7,30.06,NE,46,3.6,5.4,83,0.00,,SKC,0.00,VWS V13.01,2013-02-09 11:31:00,
2013-02-09 05:32:00,49.6,44.7,30.06,NE,49,2.7,4.9,83,0.00,,SKC,0.00,VWS V13.01,2013-02-09 11:32:00,
2013-02-09 05:33:00,49.6,44.7,30.06,NE,52,5.8,6.3,83,0.00,,SKC,0.00,VWS V13.01,2013-02-09 11:33:00,
2013-02-09 05:34:00,49.6,44.7,30.06,ESE,109,7.6,7.6,83,0.00,,SKC,0.00,VWS V13.01,2013-02-09 11:34:00,
2013-02-09 05:35:00,49.6,44.7,30.06,ENE,68,4.9,7.6,83,0.00,,SKC,0.00,VWS V13.01,2013-02-09 11:35:00,
2013-02-09 05:36:00,49.6,44.7,30.06,NNE,28,3.6,4.9,83,0.00,,SKC,0.00,VWS V13.01,2013-02-09 11:36:00,
2013-02-09 05:37:00,49.6,44.7,30.06,North,11,4.0,5.8,83,0.00,,SKC,0.00,VWS V13.01,2013-02-09 11:37:00,
2013-02-09 05:38:00,49.6,44.7,30.06,NE,35,4.0,5.8,83,0.00,,SKC,0.00,VWS V13.01,2013-02-09 11:38:00,
2013-02-09 05:39:00,49.6,44.7,30.06,ENE,60,3.6,5.8,83,0.00,,SKC,0.00,VWS V13.01,2013-02-09 11:39:00,
2013-02-09 05:40:00,49.6,44.7,30.06,NE,37,0.0,3.6,83,0.00,,SKC,0.00,VWS V13.01,2013-02-09 11:40:00,
2013-02-09 05:41:00,49.6,44.7,30.06,NE,37,3.1,5.4,83,0.00,,SKC,0.00,VWS V13.01,2013-02-09 11:41:00,
2013-02-09 05:42:00,49.6,44.7,30.06,ENE,77,5.8,5.8,83,0.00,,SKC,0.00,VWS V13.01,2013-02-09 11:42:00,
2013-02-09 05:43:00,49.6,45.0,30.06,ENE,61,3.1,7.6,84,0.00,,SKC,0.00,VWS V13.01,2013-02-09 11:43:00,
2013-02-09 05:44:00,49.6,45.0,30.06,NE,56,3.6,4.9,84,0.00,,SKC,0.00,VWS V13.01,2013-02-09 11:44:00,
2013-02-09 05:45:00,49.6,44.7,30.06,East,84,3.1,5.4,83,0.00,,SKC,0.00,VWS V13.01,2013-02-09 11:45:00,
2013-02-09 05:46:00,49.6,44.7,30.06,NE,48,3.1,4.0,83,0.00,,SKC,0.00,VWS V13.01,2013-02-09 11:46:00,
2013-02-09 05:47:00,49.8,44.6,30.06,NNE,18,3.1,4.0,82,0.00,,SKC,0.00,VWS V13.01,2013-02-09 11:47:00,
2013-02-09 05:48:00,49.8,44.5,30.06,East,80,3.1,4.0,82,0.00,,SKC,0.00,VWS V13.01,2013-02-09 11:48:00,
2013-02-09 05:49:00,49.8,44.6,30.06,NNE,28,5.4,5.4,82,0.00,,SKC,0.00,VWS V13.01,2013-02-09 11:49:00,
2013-02-09 05:50:00,49.8,44.6,30.06,ENE,74,3.1,5.8,82,0.00,,SKC,0.00,VWS V13.01,2013-02-09 11:50:00,
2013-02-09 05:51:00,50.0,44.7,30.06,NNE,32,4.9,7.2,82,0.00,,SKC,0.00,VWS V13.01,2013-02-09 11:51:00,
2013-02-09 05:52:00,50.0,44.7,30.06,NE,37,4.0,4.9,82,0.00,,SKC,0.00,VWS V13.01,2013-02-09 11:52:00,
2013-02-09 05:53:00,50.0,44.7,30.06,NE,53,0.0,4.0,82,0.00,,SKC,0.00,VWS V13.01,2013-02-09 11:53:00,
2013-02-09 05:54:00,50.0,44.7,30.06,NE,47,2.2,2.2,82,0.00,,SKC,0.00,VWS V13.01,2013-02-09 11:54:00,
2013-02-09 05:55:00,50.0,44.7,30.06,ESE,106,6.3,6.3,82,0.00,,SKC,0.00,VWS V13.01,2013-02-09 11:55:00,
2013-02-09 05:56:00,50.0,44.4,30.06,NE,44,5.4,6.3,81,0.00,,SKC,0.00,VWS V13.01,2013-02-09 11:56:00,
2013-02-09 05:57:00,50.0,44.4,30.06,East,98,2.2,5.4,81,0.00,,SKC,0.00,VWS V13.01,2013-02-09 11:57:00,
2013-02-09 05:58:00,50.0,44.4,30.06,ENE,57,5.8,5.8,81,0.00,,SKC,0.00,VWS V13.01,2013-02-09 11:58:00,
2013-02-09 05:59:00,50.0,44.4,30.06,NE,53,2.7,5.8,81,0.00,,SKC,0.00,VWS V13.01,2013-02-09 11:59:00,
2013-02-09 06:00:00,50.0,44.4,30.06,NE,50,3.1,3.6,81,0.00,,SKC,0.00,VWS V13.01,2013-02-09 12:00:00,
2013-02-09 06:01:00,50.0,44.4,30.06,ENE,76,0.0,4.0,81,0.00,,SKC,0.00,VWS V13.01,2013-02-09 12:01:00,
2013-02-09 06:02:00,50.0,44.4,30.06,East,91,5.8,5.8,81,0.00,,SKC,0.00,VWS V13.01,2013-02-09 12:02:00,
2013-02-09 06:03:00,50.0,44.4,30.06,East,85,6.3,6.3,81,0.00,,SKC,0.00,VWS V13.01,2013-02-09 12:03:00,
2013-02-09 06:04:00,50.2,44.6,30.06,ENE,57,4.0,6.3,81,0.00,,SKC,0.00,VWS V13.01,2013-02-09 12:04:00,
2013-02-09 06:05:00,50.0,44.4,30.06,NE,40,5.8,5.8,81,0.00,,SKC,0.00,VWS V13.01,2013-02-09 12:05:00,
2013-02-09 06:06:00,50.0,44.4,30.06,East,99,4.0,5.8,81,0.00,,SKC,0.00,VWS V13.01,2013-02-09 12:06:00,
2013-02-09 06:07:00,50.0,44.4,30.06,East,87,3.1,5.8,81,0.00,,SKC,0.00,VWS V13.01,2013-02-09 12:07:00,
2013-02-09 06:08:00,50.0,44.4,30.06,NE,55,3.1,3.1,81,0.00,,SKC,0.00,VWS V13.01,2013-02-09 12:08:00,
2013-02-09 06:09:00,50.0,44.4,30.06,NNE,18,5.4,5.4,81,0.00,,SKC,0.00,VWS V13.01,2013-02-09 12:09:00,
2013-02-09 06:10:00,50.0,44.4,30.06,ENE,68,2.7,5.4,81,0.00,,SKC,0.00,VWS V13.01,2013-02-09 12:10:00,
2013-02-09 06:11:00,50.0,44.4,30.06,East,80,4.0,5.8,81,0.00,,SKC,0.00,VWS V13.01,2013-02-09 12:11:00,
2013-02-09 06:12:00,50.0,44.4,30.06,ENE,63,4.9,5.4,81,0.00,,SKC,0.00,VWS V13.01,2013-02-09 12:12:00,
2013-02-09 06:13:00,50.0,44.4,30.06,NE,46,2.7,4.9,81,0.00,,SKC,0.00,VWS V13.01,2013-02-09 12:13:00,
2013-02-09 06:14:00,50.0,44.4,30.06,NE,39,3.1,6.3,81,0.00,,SKC,0.00,VWS V13.01,2013-02-09 12:14:00,
2013-02-09 06:15:00,50.0,44.4,30.06,East,85,3.6,4.0,81,0.00,,SKC,0.00,VWS V13.01,2013-02-09 12:15:00,
2013-02-09 06:16:00,50.0,44.4,30.06,East,97,5.4,7.6,81,0.00,,SKC,0.00,VWS V13.01,2013-02-09 12:16:00,
2013-02-09 06:17:00,50.0,44.4,30.06,ENE,76,3.6,5.4,81,0.00,,SKC,0.00,VWS V13.01,2013-02-09 12:17:00,
2013-02-09 06:18:00,50.0,44.4,30.06,NE,47,3.1,6.3,81,0.00,,SKC,0.00,VWS V13.01,2013-02-09 12:18:00,
2013-02-09 06:19:00,50.0,44.4,30.06,East,82,3.1,5.8,81,0.00,,SKC,0.00,VWS V13.01,2013-02-09 12:19:00,
2013-02-09 06:20:00,50.0,44.4,30.06,East,81,5.4,5.4,81,0.00,,SKC,0.00,VWS V13.01,2013-02-09 12:20:00,
2013-02-09 06:21:00,50.0,44.4,30.06,ENE,76,3.6,6.3,81,0.00,,SKC,0.00,VWS V13.01,2013-02-09 12:21:00,
2013-02-09 06:22:00,50.0,44.4,30.06,ENE,76,5.8,5.8,81,0.00,,SKC,0.00,VWS V13.01,2013-02-09 12:22:00,
2013-02-09 06:23:00,50.0,44.4,30.06,NE,36,3.6,5.8,81,0.00,,SKC,0.00,VWS V13.01,2013-02-09 12:23:00,
2013-02-09 06:25:00,50.0,44.4,30.06,East,82,4.9,4.9,81,0.00,,SKC,0.00,VWS V13.01,2013-02-09 12:25:00,
2013-02-09 06:26:00,50.0,44.4,30.06,East,98,3.1,4.9,81,0.00,,SKC,0.00,VWS V13.01,2013-02-09 12:26:00,
2013-02-09 06:27:00,50.0,44.4,30.06,ENE,68,2.7,4.9,81,0.00,,SKC,0.00,VWS V13.01,2013-02-09 12:27:00,
2013-02-09 06:28:00,50.0,44.4,30.06,NNE,32,2.7,5.4,81,0.00,,SKC,0.00,VWS V13.01,2013-02-09 12:28:00,
2013-02-09 06:29:00,50.0,44.4,30.06,NE,45,4.0,4.0,81,0.00,,SKC,0.00,VWS V13.01,2013-02-09 12:29:00,
2013-02-09 06:30:00,50.0,44.1,30.06,ENE,77,5.4,5.4,80,0.00,,SKC,0.00,VWS V13.01,2013-02-09 12:30:00,
2013-02-09 06:31:00,50.0,44.4,30.06,East,91,2.7,5.4,81,0.00,,SKC,0.00,VWS V13.01,2013-02-09 12:31:00,
2013-02-09 06:32:00,50.0,44.4,30.06,NE,45,5.4,6.7,81,0.00,,SKC,0.00,VWS V13.01,2013-02-09 12:32:00,
2013-02-09 06:33:00,50.0,44.4,30.06,East,80,3.6,5.4,81,0.00,,SKC,0.00,VWS V13.01,2013-02-09 12:33:00,
2013-02-09 06:34:00,50.0,44.4,30.06,NE,49,4.9,5.4,81,0.00,,SKC,0.00,VWS V13.01,2013-02-09 12:34:00,
2013-02-09 06:35:00,50.0,44.4,30.06,East,81,3.6,5.4,81,0.00,,SKC,0.00,VWS V13.01,2013-02-09 12:35:00,
2013-02-09 06:36:00,50.0,44.4,30.06,East,91,3.6,3.6,81,0.00,,SKC,0.00,VWS V13.01,2013-02-09 12:36:00,
2013-02-09 06:37:00,50.0,44.4,30.06,NNW,328,3.1,4.0,81,0.00,,SKC,0.00,VWS V13.01,2013-02-09 12:37:00,
2013-02-09 06:38:00,50.0,44.4,30.09,East,88,3.1,3.1,81,0.00,,SKC,0.00,VWS V13.01,2013-02-09 12:38:00,
2013-02-09 06:39:00,50.0,44.4,30.09,ENE,70,3.6,6.3,81,0.00,,SKC,0.00,VWS V13.01,2013-02-09 12:39:00,
2013-02-09 06:40:00,50.0,44.4,30.09,ENE,68,4.0,5.4,81,0.00,,SKC,0.00,VWS V13.01,2013-02-09 12:40:00,
2013-02-09 06:41:00,50.0,44.1,30.09,ENE,67,3.1,4.9,80,0.00,,SKC,0.00,VWS V13.01,2013-02-09 12:41:00,
2013-02-09 06:42:00,50.0,44.1,30.09,ENE,77,5.4,6.3,80,0.00,,SKC,0.00,VWS V13.01,2013-02-09 12:42:00,
2013-02-09 06:43:00,50.0,44.1,30.09,NNE,28,3.6,5.4,80,0.00,,SKC,0.00,VWS V13.01,2013-02-09 12:43:00,
2013-02-09 06:44:00,50.0,44.4,30.09,NE,35,2.2,4.0,81,0.00,,SKC,0.00,VWS V13.01,2013-02-09 12:44:00,
2013-02-09 06:45:00,50.0,44.4,30.09,NE,46,4.0,4.0,81,0.00,,SKC,0.00,VWS V13.01,2013-02-09 12:45:00,
2013-02-09 06:46:00,50.0,44.1,30.09,NE,53,2.2,4.0,80,0.00,,SKC,0.00,VWS V13.01,2013-02-09 12:46:00,
2013-02-09 06:47:00,50.0,44.1,30.09,NNE,32,5.8,5.8,80,0.00,,SKC,0.00,VWS V13.01,2013-02-09 12:47:00,
2013-02-09 06:48:00,50.0,44.1,30.09,NE,52,4.9,5.8,80,0.00,,SKC,0.00,VWS V13.01,2013-02-09 12:48:00,
2013-02-09 06:49:00,50.0,44.1,30.09,North,2,3.1,4.9,80,0.00,,SKC,0.00,VWS V13.01,2013-02-09 12:49:00,
2013-02-09 06:50:00,50.0,44.1,30.09,ENE,62,2.7,5.8,80,0.00,,SKC,0.00,VWS V13.01,2013-02-09 12:50:00,
2013-02-09 06:52:00,49.8,44.2,30.09,ENE,76,4.5,5.4,81,0.00,,SKC,0.00,VWS V13.01,2013-02-09 12:52:00,
2013-02-09 06:53:00,50.0,44.4,30.06,ENE,63,2.7,5.4,81,0.00,,SKC,0.00,VWS V13.01,2013-02-09 12:53:00,
2013-02-09 06:54:00,49.8,44.2,30.06,ENE,67,5.4,5.4,81,0.00,,SKC,0.00,VWS V13.01,2013-02-09 12:54:00,
2013-02-09 06:55:00,50.0,44.4,30.06,NNE,25,4.0,5.4,81,0.00,,SKC,0.00,VWS V13.01,2013-02-09 12:55:00,
2013-02-09 06:56:00,50.0,44.4,30.06,NE,38,0.0,4.0,81,0.00,,SKC,0.00,VWS V13.01,2013-02-09 12:56:00,
2013-02-09 06:57:00,50.0,44.4,30.06,NE,50,3.1,3.1,81,0.00,,SKC,0.00,VWS V13.01,2013-02-09 12:57:00,
2013-02-09 06:58:00,50.0,44.4,30.06,NNE,12,2.2,3.1,81,0.00,,SKC,0.00,VWS V13.01,2013-02-09 12:58:00,
2013-02-09 06:59:00,50.0,44.4,30.06,ENE,77,3.1,3.6,81,0.00,,SKC,0.00,VWS V13.01,2013-02-09 12:59:00,
2013-02-09 07:00:00,50.0,44.4,30.06,ENE,69,3.6,4.0,81,0.00,,SKC,0.00,VWS V13.01,2013-02-09 13:00:00,
2013-02-09 07:01:00,50.2,44.6,30.06,North,360,3.6,4.0,81,0.00,,SKC,0.00,VWS V13.01,2013-02-09 13:01:00,
2013-02-09 07:02:00,50.2,44.3,30.06,ENE,65,4.0,4.0,80,0.00,,SKC,0.00,VWS V13.01,2013-02-09 13:02:00,
2013-02-09 07:03:00,50.2,44.6,30.06,ENE,62,3.1,4.0,81,0.00,,SKC,0.00,VWS V13.01,2013-02-09 13:03:00,
2013-02-09 07:04:00,50.2,44.6,30.06,East,80,3.1,4.0,81,0.00,,SKC,0.00,VWS V13.01,2013-02-09 13:04:00,
2013-02-09 07:05:00,50.2,44.3,30.06,East,81,3.6,5.4,80,0.00,,SKC,0.00,VWS V13.01,2013-02-09 13:05:00,
2013-02-09 07:06:00,50.2,44.3,30.06,ENE,58,3.6,4.0,80,0.00,,SKC,0.00,VWS V13.01,2013-02-09 13:06:00,
2013-02-09 07:07:00,50.2,44.3,30.06,NE,49,3.6,3.6,80,0.00,,SKC,0.00,VWS V13.01,2013-02-09 13:07:00,
2013-02-09 07:08:00,50.2,44.3,30.09,ENE,78,4.0,4.0,80,0.00,,SKC,0.00,VWS V13.01,2013-02-09 13:08:00,
2013-02-09 07:09:00,50.2,44.3,30.09,NE,50,2.7,4.9,80,0.00,,SKC,0.00,VWS V13.01,2013-02-09 13:09:00,
2013-02-09 07:10:00,50.2,44.3,30.09,ENE,61,5.4,6.3,80,0.00,,SKC,0.00,VWS V13.01,2013-02-09 13:10:00,
2013-02-09 07:11:00,50.2,44.3,30.09,NE,54,5.4,5.8,80,0.00,,SKC,0.00,VWS V13.01,2013-02-09 13:11:00,
2013-02-09 07:12:00,50.2,44.3,30.09,ENE,70,5.8,7.6,80,0.00,,SKC,0.00,VWS V13.01,2013-02-09 13:12:00,
2013-02-09 07:13:00,50.4,44.4,30.09,ENE,78,4.9,6.3,80,0.00,,SKC,0.00,VWS V13.01,2013-02-09 13:13:00,
2013-02-09 07:14:00,50.4,44.4,30.09,ENE,59,5.4,5.4,80,0.00,,SKC,0.00,VWS V13.01,2013-02-09 13:14:00,
2013-02-09 07:15:00,50.4,44.4,30.09,ENE,75,4.0,5.4,80,0.00,,SKC,0.00,VWS V13.01,2013-02-09 13:15:00,
2013-02-09 07:16:00,50.4,44.4,30.09,East,83,2.7,4.9,80,0.00,,SKC,0.00,VWS V13.01,2013-02-09 13:16:00,
2013-02-09 07:17:00,50.4,44.4,30.09,NE,45,5.8,5.8,80,0.00,,SKC,0.00,VWS V13.01,2013-02-09 13:17:00,
2013-02-09 07:18:00,50.4,44.4,30.09,ENE,57,5.4,5.8,80,0.00,,SKC,0.00,VWS V13.01,2013-02-09 13:18:00,
2013-02-09 07:19:00,50.4,44.4,30.09,ENE,66,2.7,5.4,80,0.00,,SKC,0.00,VWS V13.01,2013-02-09 13:19:00,
2013-02-09 07:20:00,50.4,44.4,30.09,NNE,28,5.8,8.3,80,0.00,,SKC,0.00,VWS V13.01,2013-02-09 13:20:00,
2013-02-09 07:21:00,50.4,44.4,30.09,North,3,4.0,5.8,80,0.00,,SKC,0.00,VWS V13.01,2013-02-09 13:21:00,
2013-02-09 07:22:00,50.4,44.4,30.06,NNE,32,3.1,7.6,80,0.00,,SKC,0.00,VWS V13.01,2013-02-09 13:22:00,
2013-02-09 07:23:00,50.4,44.4,30.06,NE,40,4.0,5.8,80,0.00,,SKC,0.00,VWS V13.01,2013-02-09 13:23:00,
2013-02-09 07:24:00,50.4,44.8,30.06,NNE,32,3.1,4.0,81,0.00,,SKC,0.00,VWS V13.01,2013-02-09 13:24:00,
2013-02-09 07:25:00,50.4,44.4,30.06,ENE,73,5.8,5.8,80,0.00,,SKC,0.00,VWS V13.01,2013-02-09 13:25:00,
2013-02-09 07:26:00,50.4,44.4,30.06,ENE,65,5.4,6.3,80,0.00,,SKC,0.00,VWS V13.01,2013-02-09 13:26:00,
2013-02-09 07:27:00,50.4,44.8,30.06,NNE,16,2.7,5.4,81,0.00,,SKC,0.00,VWS V13.01,2013-02-09 13:27:00,
2013-02-09 07:28:00,50.4,44.8,30.06,NE,35,3.6,5.4,81,0.00,,SKC,0.00,VWS V13.01,2013-02-09 13:28:00,
2013-02-09 07:29:00,50.5,44.6,30.06,NE,36,6.3,6.3,80,0.00,,SKC,0.00,VWS V13.01,2013-02-09 13:29:00,
2013-02-09 07:30:00,50.5,44.6,30.06,ENE,63,3.6,7.2,80,0.00,,SKC,0.00,VWS V13.01,2013-02-09 13:30:00,
2013-02-09 07:31:00,50.5,44.6,30.06,ENE,65,4.9,7.6,80,0.00,,SKC,0.00,VWS V13.01,2013-02-09 13:31:00,
2013-02-09 07:32:00,50.5,44.6,30.06,NE,49,5.8,9.6,80,0.00,,SKC,0.00,VWS V13.01,2013-02-09 13:32:00,
2013-02-09 07:33:00,50.5,44.6,30.06,ENE,73,5.8,6.3,80,0.00,,SKC,0.00,VWS V13.01,2013-02-09 13:33:00,
2013-02-09 07:34:00,50.5,44.9,30.06,ENE,66,6.3,6.3,81,0.00,,SKC,0.00,VWS V13.01,2013-02-09 13:34:00,
2013-02-09 07:35:00,50.5,44.6,30.06,East,86,3.1,6.3,80,0.00,,SKC,0.00,VWS V13.01,2013-02-09 13:35:00,
2013-02-09 07:36:00,50.7,45.1,30.06,East,98,2.7,3.6,81,0.00,,SKC,0.00,VWS V13.01,2013-02-09 13:36:00,
2013-02-09 07:37:00,50.7,44.8,30.06,East,83,3.6,5.8,80,0.00,,SKC,0.00,VWS V13.01,2013-02-09 13:37:00,
2013-02-09 07:38:00,50.7,44.8,30.09,NE,39,6.3,6.3,80,0.00,,SKC,0.00,VWS V13.01,2013-02-09 13:38:00,
2013-02-09 07:39:00,50.9,45.0,30.09,ENE,60,8.1,8.1,80,0.00,,SKC,0.00,VWS V13.01,2013-02-09 13:39:00,
2013-02-09 07:40:00,50.9,44.6,30.09,ENE,63,6.3,8.1,79,0.00,,SKC,0.00,VWS V13.01,2013-02-09 13:40:00,
2013-02-09 07:41:00,50.9,44.6,30.09,NE,45,3.1,6.3,79,0.00,,SKC,0.00,VWS V13.01,2013-02-09 13:41:00,
2013-02-09 07:42:00,51.1,44.8,30.09,East,79,5.8,6.3,79,0.00,,SKC,0.00,VWS V13.01,2013-02-09 13:42:00,
2013-02-09 07:43:00,51.1,45.1,30.09,ENE,78,2.7,5.8,80,0.00,,SKC,0.00,VWS V13.01,2013-02-09 13:43:00,
2013-02-09 07:44:00,51.1,44.8,30.09,East,86,5.8,8.3,79,0.00,,SKC,0.00,VWS V13.01,2013-02-09 13:44:00,
2013-02-09 07:45:00,51.1,44.8,30.09,ENE,72,5.4,5.8,79,0.00,,SKC,0.00,VWS V13.01,2013-02-09 13:45:00,
2013-02-09 07:46:00,51.3,45.0,30.09,NE,54,3.1,5.4,79,0.00,,SKC,0.00,VWS V13.01,2013-02-09 13:46:00,
2013-02-09 07:47:00,51.3,45.3,30.09,ENE,64,8.3,8.3,80,0.00,,SKC,0.00,VWS V13.01,2013-02-09 13:47:00,
2013-02-09 07:48:00,51.3,44.7,30.09,NE,42,4.9,8.3,78,0.00,,SKC,0.00,VWS V13.01,2013-02-09 13:48:00,
2013-02-09 07:49:00,51.1,44.5,30.09,ENE,58,3.1,6.3,78,0.00,,SKC,0.00,VWS V13.01,2013-02-09 13:49:00,
2013-02-09 07:50:00,51.1,44.5,30.09,ENE,67,3.1,3.6,78,0.00,,SKC,0.00,VWS V13.01,2013-02-09 13:50:00,
2013-02-09 07:51:00,51.3,45.0,30.09,ENE,58,5.4,6.3,79,0.00,,SKC,0.00,VWS V13.01,2013-02-09 13:51:00,
2013-02-09 07:52:00,51.3,44.7,30.09,East,81,8.1,8.1,78,0.00,,SKC,0.00,VWS V13.01,2013-02-09 13:52:00,
2013-02-09 07:53:00,51.3,45.0,30.09,NE,47,8.1,8.1,79,0.00,,SKC,0.00,VWS V13.01,2013-02-09 13:53:00,
2013-02-09 07:54:00,51.3,44.7,30.09,ENE,73,4.0,8.1,78,0.00,,SKC,0.00,VWS V13.01,2013-02-09 13:54:00,
2013-02-09 07:55:00,51.3,44.6,30.09,ENE,68,8.3,8.3,78,0.00,,SKC,0.00,VWS V13.01,2013-02-09 13:55:00,
2013-02-09 07:56:00,51.3,44.7,30.09,ENE,76,4.0,8.3,78,0.00,,SKC,0.00,VWS V13.01,2013-02-09 13:56:00,
2013-02-09 07:57:00,51.4,45.2,30.09,East,81,4.9,7.6,79,0.00,,SKC,0.00,VWS V13.01,2013-02-09 13:57:00,
2013-02-09 07:58:00,51.3,44.7,30.09,ENE,58,8.3,8.3,78,0.00,,SKC,0.00,VWS V13.01,2013-02-09 13:58:00,
2013-02-09 07:59:00,51.4,45.5,30.09,NE,46,4.0,8.3,80,0.00,,SKC,0.00,VWS V13.01,2013-02-09 13:59:00,
2013-02-09 08:00:00,51.4,45.5,30.09,NE,50,5.8,5.8,80,0.00,,SKC,0.00,VWS V13.01,2013-02-09 14:00:00,
2013-02-09 08:01:00,51.4,44.8,30.09,ENE,64,4.0,5.8,78,0.00,,SKC,0.00,VWS V13.01,2013-02-09 14:01:00,
2013-02-09 08:02:00,51.6,45.3,30.09,NE,53,6.7,10.1,79,0.00,,SKC,0.00,VWS V13.01,2013-02-09 14:02:00,
2013-02-09 08:03:00,51.6,45.0,30.09,ENE,70,7.6,8.7,78,0.00,,SKC,0.00,VWS V13.01,2013-02-09 14:03:00,
2013-02-09 08:04:00,51.6,44.7,30.09,ENE,65,6.3,7.6,77,0.00,,SKC,0.00,VWS V13.01,2013-02-09 14:04:00,
2013-02-09 08:05:00,51.6,45.0,30.09,East,79,3.6,6.3,78,0.00,,SKC,0.00,VWS V13.01,2013-02-09 14:05:00,
2013-02-09 08:06:00,51.6,45.0,30.09,ENE,74,5.8,8.7,78,0.00,,SKC,0.00,VWS V13.01,2013-02-09 14:06:00,
2013-02-09 08:07:00,51.6,44.7,30.09,NE,41,3.6,6.3,77,0.00,,SKC,0.00,VWS V13.01,2013-02-09 14:07:00,
2013-02-09 08:08:00,51.6,45.0,30.09,East,85,4.0,6.3,78,0.00,,SKC,0.00,VWS V13.01,2013-02-09 14:08:00,
2013-02-09 08:09:00,51.6,44.3,30.09,NE,49,5.4,11.0,76,0.00,,SKC,0.00,VWS V13.01,2013-02-09 14:09:00,
2013-02-09 08:10:00,51.6,44.3,30.09,ENE,60,4.0,8.3,76,0.00,,SKC,0.00,VWS V13.01,2013-02-09 14:10:00,
2013-02-09 08:11:00,51.6,44.7,30.09,ESE,104,6.3,6.3,77,0.00,,SKC,0.00,VWS V13.01,2013-02-09 14:11:00,
2013-02-09 08:12:00,51.6,45.3,30.09,East,87,5.4,6.3,79,0.00,,SKC,0.00,VWS V13.01,2013-02-09 14:12:00,
2013-02-09 08:13:00,51.6,45.0,30.09,East,98,2.7,8.3,78,0.00,,SKC,0.00,VWS V13.01,2013-02-09 14:13:00,
2013-02-09 08:14:00,51.8,45.5,30.09,ENE,63,5.8,5.8,79,0.00,,SKC,0.00,VWS V13.01,2013-02-09 14:14:00,
2013-02-09 08:15:00,51.8,45.5,30.09,East,94,4.5,8.3,79,0.00,,SKC,0.00,VWS V13.01,2013-02-09 14:15:00,
2013-02-09 08:16:00,51.8,44.8,30.09,NE,56,5.4,7.6,77,0.00,,SKC,0.00,VWS V13.01,2013-02-09 14:16:00,
2013-02-09 08:17:00,52.0,45.0,30.09,East,84,5.4,8.7,77,0.00,,SKC,0.00,VWS V13.01,2013-02-09 14:17:00,
2013-02-09 08:18:00,52.0,44.7,30.09,East,95,6.3,6.3,76,0.00,,SKC,0.00,VWS V13.01,2013-02-09 14:18:00,
2013-02-09 08:19:00,52.0,44.3,30.09,East,80,4.0,7.6,75,0.00,,SKC,0.00,VWS V13.01,2013-02-09 14:19:00,
2013-02-09 08:20:00,52.2,44.8,30.09,East,82,5.8,5.8,76,0.00,,SKC,0.00,VWS V13.01,2013-02-09 14:20:00,
2013-02-09 08:21:00,52.2,44.5,30.09,NE,35,4.0,6.3,75,0.00,,SKC,0.00,VWS V13.01,2013-02-09 14:21:00,
2013-02-09 08:22:00,52.2,44.5,30.09,ENE,67,4.9,6.3,75,0.00,,SKC,0.00,VWS V13.01,2013-02-09 14:22:00,
2013-02-09 08:23:00,52.2,44.8,30.09,ENE,68,8.1,8.1,76,0.00,,SKC,0.00,VWS V13.01,2013-02-09 14:23:00,
2013-02-09 08:24:00,52.2,44.5,30.09,East,92,3.1,8.3,75,0.00,,SKC,0.00,VWS V13.01,2013-02-09 14:24:00,
2013-02-09 08:25:00,52.2,44.5,30.09,East,90,6.3,8.7,75,0.00,,SKC,0.00,VWS V13.01,2013-02-09 14:25:00,
2013-02-09 08:26:00,52.2,44.1,30.09,NE,53,4.9,11.0,74,0.00,,SKC,0.00,VWS V13.01,2013-02-09 14:26:00,
2013-02-09 08:27:00,52.2,44.1,30.09,NE,56,5.8,6.3,74,0.00,,SKC,0.00,VWS V13.01,2013-02-09 14:27:00,
2013-02-09 08:28:00,52.2,44.5,30.09,NNE,23,5.8,5.8,75,0.00,,SKC,0.00,VWS V13.01,2013-02-09 14:28:00,
2013-02-09 08:29:00,52.2,44.5,30.09,ENE,78,5.8,5.8,75,0.00,,SKC,0.00,VWS V13.01,2013-02-09 14:29:00,
2013-02-09 08:30:00,52.2,44.5,30.09,ENE,65,8.1,10.1,75,0.00,,SKC,0.00,VWS V13.01,2013-02-09 14:30:00,
2013-02-09 08:31:00,52.2,44.8,30.09,East,85,3.1,8.3,76,0.00,,SKC,0.00,VWS V13.01,2013-02-09 14:31:00,
2013-02-09 08:32:00,52.2,44.5,30.09,NE,35,6.7,10.5,75,0.00,,SKC,0.00,VWS V13.01,2013-02-09 14:32:00,
2013-02-09 08:33:00,52.2,44.5,30.09,NE,50,8.7,8.7,75,0.00,,SKC,0.00,VWS V13.01,2013-02-09 14:33:00,
2013-02-09 08:34:00,52.3,44.7,30.09,NE,36,5.4,11.0,75,0.00,,SKC,0.00,VWS V13.01,2013-02-09 14:34:00,
2013-02-09 08:35:00,52.3,44.7,30.09,East,98,3.1,8.3,75,0.00,,SKC,0.00,VWS V13.01,2013-02-09 14:35:00,
2013-02-09 08:36:00,52.3,45.3,30.09,ESE,115,4.0,4.9,77,0.00,,SKC,0.00,VWS V13.01,2013-02-09 14:36:00,
2013-02-09 08:37:00,52.3,45.3,30.09,ESE,102,5.8,6.3,77,0.00,,SKC,0.00,VWS V13.01,2013-02-09 14:37:00,
2013-02-09 08:38:00,52.5,45.9,30.09,East,80,6.3,6.3,78,0.00,,SKC,0.00,VWS V13.01,2013-02-09 14:38:00,
2013-02-09 08:39:00,52.5,45.2,30.09,East,80,5.4,8.3,76,0.00,,SKC,0.00,VWS V13.01,2013-02-09 14:39:00,
2013-02-09 08:40:00,52.7,45.7,30.09,East,100,5.4,8.1,77,0.00,,SKC,0.00,VWS V13.01,2013-02-09 14:40:00,
2013-02-09 08:41:00,52.7,45.4,30.09,ENE,65,5.8,6.3,76,0.00,,SKC,0.00,VWS V13.01,2013-02-09 14:41:00,
2013-02-09 08:42:00,52.9,45.2,30.09,East,79,5.8,5.8,75,0.00,,SKC,0.00,VWS V13.01,2013-02-09 14:42:00,
2013-02-09 08:43:00,52.9,45.9,30.09,SE,143,5.4,5.8,77,0.00,,SKC,0.00,VWS V13.01,2013-02-09 14:43:00,
2013-02-09 08:44:00,52.9,45.5,30.09,ESE,109,6.7,8.1,76,0.00,,SKC,0.00,VWS V13.01,2013-02-09 14:44:00,
2013-02-09 08:45:00,52.9,44.8,30.09,ENE,66,5.8,6.7,74,0.00,,SKC,0.00,VWS V13.01,2013-02-09 14:45:00,
2013-02-09 08:46:00,53.1,45.4,30.09,NE,42,4.0,5.8,75,0.00,,SKC,0.00,VWS V13.01,2013-02-09 14:46:00,
2013-02-09 08:47:00,53.1,44.7,30.09,NE,54,8.3,8.3,73,0.00,,SKC,0.00,VWS V13.01,2013-02-09 14:47:00,
2013-02-09 08:48:00,53.2,45.5,30.09,East,85,6.3,8.3,75,0.00,,SKC,0.00,VWS V13.01,2013-02-09 14:48:00,
2013-02-09 08:49:00,53.2,45.2,30.09,East,79,8.3,8.3,74,0.00,,SKC,0.00,VWS V13.01,2013-02-09 14:49:00,
2013-02-09 08:50:00,53.2,45.2,30.09,ENE,77,4.0,8.3,74,0.00,,SKC,0.00,VWS V13.01,2013-02-09 14:50:00,
2013-02-09 08:51:00,53.2,45.2,30.09,ESE,102,6.3,6.3,74,0.00,,SKC,0.00,VWS V13.01,2013-02-09 14:51:00,
2013-02-09 08:52:00,53.2,45.2,30.09,East,89,6.3,6.3,74,0.00,,SKC,0.00,VWS V13.01,2013-02-09 14:52:00,
2013-02-09 08:53:00,53.4,45.0,30.09,ENE,73,5.4,6.3,73,0.00,,SKC,0.00,VWS V13.01,2013-02-09 14:53:00,
2013-02-09 08:54:00,53.4,45.0,30.09,East,97,3.1,6.3,73,0.00,,SKC,0.00,VWS V13.01,2013-02-09 14:54:00,
2013-02-09 08:55:00,53.4,45.3,30.09,East,83,2.7,4.0,74,0.00,,SKC,0.00,VWS V13.01,2013-02-09 14:55:00,
2013-02-09 08:56:00,53.4,45.3,30.09,NNE,24,5.8,6.7,74,0.00,,SKC,0.00,VWS V13.01,2013-02-09 14:56:00,
2013-02-09 08:57:00,53.2,45.2,30.09,NE,43,6.3,6.3,74,0.00,,SKC,0.00,VWS V13.01,2013-02-09 14:57:00,
2013-02-09 08:58:00,53.2,44.8,30.09,NE,35,0.0,6.3,73,0.00,,SKC,0.00,VWS V13.01,2013-02-09 14:58:00,
2013-02-09 08:59:00,53.2,45.5,30.09,ENE,68,4.9,4.9,75,0.00,,SKC,0.00,VWS V13.01,2013-02-09 14:59:00,
2013-02-09 09:00:00,53.2,45.9,30.09,ENE,63,3.6,5.4,76,0.00,,SKC,0.00,VWS V13.01,2013-02-09 15:00:00,
2013-02-09 09:01:00,53.2,45.5,30.09,NE,50,3.6,4.9,75,0.00,,SKC,0.00,VWS V13.01,2013-02-09 15:01:00,
2013-02-09 09:02:00,53.2,45.2,30.09,ENE,67,5.4,5.4,74,0.00,,SKC,0.00,VWS V13.01,2013-02-09 15:02:00,
2013-02-09 09:03:00,53.2,45.5,30.09,East,88,3.6,5.4,75,0.00,,SKC,0.00,VWS V13.01,2013-02-09 15:03:00,
2013-02-09 09:04:00,53.2,45.2,30.09,NNE,32,4.9,5.4,74,0.00,,SKC,0.00,VWS V13.01,2013-02-09 15:04:00,
2013-02-09 09:05:00,53.2,45.5,30.09,ENE,59,2.7,5.4,75,0.00,,SKC,0.00,VWS V13.01,2013-02-09 15:05:00,
2013-02-09 09:06:00,53.2,45.5,30.09,ENE,77,2.7,3.6,75,0.00,,SKC,0.00,VWS V13.01,2013-02-09 15:06:00,
2013-02-09 09:07:00,53.2,45.5,30.09,NE,53,6.3,6.3,75,0.00,,SKC,0.00,VWS V13.01,2013-02-09 15:07:00,
2013-02-09 09:08:00,53.2,45.5,30.09,East,83,3.6,6.3,75,0.00,,SKC,0.00,VWS V13.01,2013-02-09 15:08:00,
2013-02-09 09:09:00,53.2,44.8,30.09,NE,35,4.9,5.4,73,0.00,,SKC,0.00,VWS V13.01,2013-02-09 15:09:00,
2013-02-09 09:10:00,53.2,45.2,30.09,ENE,74,6.3,6.3,74,0.00,,SKC,0.00,VWS V13.01,2013-02-09 15:10:00,
2013-02-09 09:11:00,53.2,45.2,30.09,ENE,62,4.0,8.3,74,0.00,,SKC,0.00,VWS V13.01,2013-02-09 15:11:00,
2013-02-09 09:12:00,53.2,45.5,30.09,ENE,61,4.9,4.9,75,0.00,,SKC,0.00,VWS V13.01,2013-02-09 15:12:00,
2013-02-09 09:13:00,53.2,45.9,30.09,ESE,112,2.7,6.3,76,0.00,,SKC,0.00,VWS V13.01,2013-02-09 15:13:00,
2013-02-09 09:14:00,53.4,46.4,30.09,ENE,74,5.8,5.8,77,0.00,,SKC,0.00,VWS V13.01,2013-02-09 15:14:00,
2013-02-09 09:15:00,53.4,45.7,30.09,ENE,71,3.6,8.1,75,0.00,,SKC,0.00,VWS V13.01,2013-02-09 15:15:00,
2013-02-09 09:16:00,53.6,45.9,30.09,NE,41,4.0,4.9,75,0.00,,SKC,0.00,VWS V13.01,2013-02-09 15:16:00,
2013-02-09 09:17:00,53.6,46.2,30.09,ENE,68,4.0,6.3,76,0.00,,SKC,0.00,VWS V13.01,2013-02-09 15:17:00,
2013-02-09 09:18:00,53.6,45.5,30.09,ENE,75,5.4,6.3,74,0.00,,SKC,0.00,VWS V13.01,2013-02-09 15:18:00,
2013-02-09 09:19:00,53.8,45.7,30.09,NNE,32,5.4,5.8,74,0.00,,SKC,0.00,VWS V13.01,2013-02-09 15:19:00,
2013-02-09 09:20:00,53.8,46.0,30.09,ENE,58,5.8,5.8,75,0.00,,SKC,0.00,VWS V13.01,2013-02-09 15:20:00,
2013-02-09 09:21:00,53.8,46.0,30.09,NE,41,3.6,5.8,75,0.00,,SKC,0.00,VWS V13.01,2013-02-09 15:21:00,
2013-02-09 09:22:00,54.0,46.2,30.09,NE,38,5.4,5.4,75,0.00,,SKC,0.00,VWS V13.01,2013-02-09 15:22:00,
2013-02-09 09:23:00,54.0,46.2,30.09,ESE,111,3.6,6.3,75,0.00,,SKC,0.00,VWS V13.01,2013-02-09 15:23:00,
2013-02-09 09:24:00,54.1,47.8,30.09,ENE,77,3.1,8.1,79,0.00,,SKC,0.00,VWS V13.01,2013-02-09 15:24:00,
2013-02-09 09:25:00,54.1,47.8,30.09,ENE,61,4.9,8.3,79,0.00,,SKC,0.00,VWS V13.01,2013-02-09 15:25:00,
2013-02-09 09:26:00,54.3,46.9,30.09,East,83,4.9,4.9,76,0.00,,SKC,0.00,VWS V13.01,2013-02-09 15:26:00,
2013-02-09 09:27:00,54.5,47.5,30.09,East,101,3.6,6.3,77,0.00,,SKC,0.00,VWS V13.01,2013-02-09 15:27:00,
2013-02-09 09:28:00,54.5,47.8,30.09,ESE,123,4.9,4.9,78,0.00,,SKC,0.00,VWS V13.01,2013-02-09 15:28:00,
2013-02-09 09:29:00,54.7,46.6,30.09,East,83,5.8,5.8,74,0.00,,SKC,0.00,VWS V13.01,2013-02-09 15:29:00,
2013-02-09 09:30:00,54.7,46.9,30.09,NE,35,3.1,5.8,75,0.00,,SKC,0.00,VWS V13.01,2013-02-09 15:30:00,
2013-02-09 09:31:00,54.9,47.1,30.09,East,91,4.9,4.9,75,0.00,,SKC,0.00,VWS V13.01,2013-02-09 15:31:00,
2013-02-09 09:32:00,55.0,46.9,30.09,ENE,78,4.9,7.6,74,0.00,,SKC,0.00,VWS V13.01,2013-02-09 15:32:00,
2013-02-09 09:33:00,55.2,47.1,30.09,ESE,103,4.9,5.8,74,0.00,,SKC,0.00,VWS V13.01,2013-02-09 15:33:00,
2013-02-09 09:34:00,55.2,46.7,30.09,East,91,5.4,6.3,73,0.00,,SKC,0.00,VWS V13.01,2013-02-09 15:34:00,
2013-02-09 09:35:00,55.6,47.1,30.09,East,91,3.6,5.8,73,0.00,,SKC,0.00,VWS V13.01,2013-02-09 15:35:00,
2013-02-09 09:36:00,55.8,46.9,30.09,NE,35,4.0,6.3,72,0.00,,SKC,0.00,VWS V13.01,2013-02-09 15:36:00,
2013-02-09 09:37:00,55.8,46.9,30.09,NE,47,6.3,6.3,72,0.00,,SKC,0.00,VWS V13.01,2013-02-09 15:37:00,
2013-02-09 09:38:00,55.9,47.1,30.09,ENE,76,4.9,8.7,72,0.00,,SKC,0.00,VWS V13.01,2013-02-09 15:38:00,
2013-02-09 09:39:00,55.9,47.1,30.09,NNE,32,6.3,8.3,72,0.00,,SKC,0.00,VWS V13.01,2013-02-09 15:39:00,
2013-02-09 09:40:00,56.1,47.2,30.09,ENE,77,5.8,6.3,72,0.00,,SKC,0.00,VWS V13.01,2013-02-09 15:40:00,
2013-02-09 09:41:00,56.3,47.0,30.09,East,93,5.8,5.8,71,0.00,,SKC,0.00,VWS V13.01,2013-02-09 15:41:00,
2013-02-09 09:42:00,56.3,47.0,30.09,NE,41,8.7,8.7,71,0.00,,SKC,0.00,VWS V13.01,2013-02-09 15:42:00,
2013-02-09 09:43:00,56.3,47.0,30.09,East,96,2.7,8.7,71,0.00,,SKC,0.00,VWS V13.01,2013-02-09 15:43:00,
2013-02-09 09:44:00,56.3,47.0,30.09,ENE,67,2.7,4.0,71,0.00,,SKC,0.00,VWS V13.01,2013-02-09 15:44:00,
2013-02-09 09:45:00,56.3,47.4,30.09,ENE,61,5.8,6.7,72,0.00,,SKC,0.00,VWS V13.01,2013-02-09 15:45:00,
2013-02-09 09:46:00,56.3,47.0,30.09,ENE,74,8.1,8.1,71,0.00,,SKC,0.00,VWS V13.01,2013-02-09 15:46:00,
2013-02-09 09:47:00,56.5,47.2,30.09,East,99,3.6,8.1,71,0.00,,SKC,0.00,VWS V13.01,2013-02-09 15:47:00,
2013-02-09 09:48:00,56.5,47.6,30.09,NE,49,3.1,7.6,72,0.00,,SKC,0.00,VWS V13.01,2013-02-09 15:48:00,
2013-02-09 09:49:00,56.7,47.8,30.09,East,88,4.0,4.0,72,0.00,,SKC,0.00,VWS V13.01,2013-02-09 15:49:00,
2013-02-09 09:50:00,56.7,47.0,30.09,NE,53,8.3,8.3,70,0.00,,SKC,0.00,VWS V13.01,2013-02-09 15:50:00,
2013-02-09 09:51:00,56.7,47.4,30.09,ENE,59,5.4,8.3,71,0.00,,SKC,0.00,VWS V13.01,2013-02-09 15:51:00,
2013-02-09 09:52:00,56.7,47.0,30.09,ENE,77,5.8,7.2,70,0.00,,SKC,0.00,VWS V13.01,2013-02-09 15:52:00,
2013-02-09 09:53:00,56.5,46.8,30.12,NE,37,3.1,5.8,70,0.00,,SKC,0.00,VWS V13.01,2013-02-09 15:53:00,
2013-02-09 09:54:00,56.7,47.0,30.12,NE,35,2.7,7.6,70,0.00,,SKC,0.00,VWS V13.01,2013-02-09 15:54:00,
2013-02-09 09:55:00,56.7,47.4,30.12,ENE,62,4.0,4.0,71,0.00,,SKC,0.00,VWS V13.01,2013-02-09 15:55:00,
2013-02-09 09:56:00,56.7,47.4,30.12,East,89,5.8,7.2,71,0.00,,SKC,0.00,VWS V13.01,2013-02-09 15:56:00,
2013-02-09 09:57:00,56.8,47.9,30.12,East,96,3.6,6.3,72,0.00,,SKC,0.00,VWS V13.01,2013-02-09 15:57:00,
2013-02-09 09:58:00,56.8,47.9,30.12,NE,45,4.0,5.4,72,0.00,,SKC,0.00,VWS V13.01,2013-02-09 15:58:00,
2013-02-09 09:59:00,56.8,47.5,30.12,East,89,4.9,4.9,71,0.00,,SKC,0.00,VWS V13.01,2013-02-09 15:59:00,
2013-02-09 10:00:00,57.0,47.7,30.12,ESE,109,3.1,4.9,71,0.00,,SKC,0.00,VWS V13.01,2013-02-09 16:00:00,
2013-02-09 10:01:00,57.2,47.5,30.12,NE,44,3.1,5.8,70,0.00,,SKC,0.00,VWS V13.01,2013-02-09 16:01:00,
2013-02-09 10:02:00,57.2,47.5,30.12,ESE,107,3.1,3.1,70,0.00,,SKC,0.00,VWS V13.01,2013-02-09 16:02:00,
2013-02-09 10:03:00,57.2,47.5,30.12,East,98,3.1,4.0,70,0.00,,SKC,0.00,VWS V13.01,2013-02-09 16:03:00,
2013-02-09 10:04:00,57.4,48.1,30.12,East,84,2.7,3.6,71,0.00,,SKC,0.00,VWS V13.01,2013-02-09 16:04:00,
2013-02-09 10:05:00,57.4,48.4,30.12,ENE,71,5.4,5.4,72,0.00,,SKC,0.00,VWS V13.01,2013-02-09 16:05:00,
2013-02-09 10:06:00,57.6,47.9,30.12,NNE,12,2.7,6.3,70,0.00,,SKC,0.00,VWS V13.01,2013-02-09 16:06:00,
2013-02-09 10:07:00,57.6,47.9,30.12,East,80,0.0,5.4,70,0.00,,SKC,0.00,VWS V13.01,2013-02-09 16:07:00,
2013-02-09 10:08:00,57.6,48.2,30.09,East,80,5.4,5.4,71,0.00,,SKC,0.00,VWS V13.01,2013-02-09 16:08:00,
2013-02-09 10:09:00,57.7,48.0,30.09,ENE,64,4.0,6.7,70,0.00,,SKC,0.00,VWS V13.01,2013-02-09 16:09:00,
2013-02-09 10:10:00,57.7,48.0,30.09,NE,42,4.9,4.9,70,0.00,,SKC,0.00,VWS V13.01,2013-02-09 16:10:00,
2013-02-09 10:11:00,57.7,48.0,30.09,NNE,32,3.6,4.9,70,0.00,,SKC,0.00,VWS V13.01,2013-02-09 16:11:00,
2013-02-09 10:12:00,57.7,48.0,30.09,East,101,5.4,5.8,70,0.00,,SKC,0.00,VWS V13.01,2013-02-09 16:12:00,
2013-02-09 10:13:00,57.7,48.0,30.09,ENE,64,2.7,5.4,70,0.00,,SKC,0.00,VWS V13.01,2013-02-09 16:13:00,
2013-02-09 10:14:00,57.9,48.6,30.09,North,10,4.0,4.9,71,0.00,,SKC,0.00,VWS V13.01,2013-02-09 16:14:00,
2013-02-09 10:15:00,57.7,48.0,30.09,ENE,78,0.0,4.0,70,0.00,,SKC,0.00,VWS V13.01,2013-02-09 16:15:00,
2013-02-09 10:16:00,57.9,48.2,30.09,East,91,3.1,3.1,70,0.00,,SKC,0.00,VWS V13.01,2013-02-09 16:16:00,
2013-02-09 10:17:00,57.9,48.6,30.09,ESE,102,5.8,5.8,71,0.00,,SKC,0.00,VWS V13.01,2013-02-09 16:17:00,
2013-02-09 10:18:00,57.9,48.6,30.09,East,93,2.7,6.3,71,0.00,,SKC,0.00,VWS V13.01,2013-02-09 16:18:00,
2013-02-09 10:19:00,57.9,48.6,30.09,East,96,5.4,5.4,71,0.00,,SKC,0.00,VWS V13.01,2013-02-09 16:19:00,
2013-02-09 10:20:00,58.1,48.8,30.09,East,95,3.1,5.4,71,0.00,,SKC,0.00,VWS V13.01,2013-02-09 16:20:00,
2013-02-09 10:21:00,58.1,48.8,30.09,ENE,78,2.2,3.1,71,0.00,,SKC,0.00,VWS V13.01,2013-02-09 16:21:00,
2013-02-09 10:22:00,58.5,49.1,30.09,ESE,103,2.7,5.4,71,0.00,,SKC,0.00,VWS V13.01,2013-02-09 16:22:00,
2013-02-09 10:23:00,58.5,48.7,30.09,East,90,3.1,4.9,70,0.00,,SKC,0.00,VWS V13.01,2013-02-09 16:23:00,
2013-02-09 10:24:00,58.6,48.9,30.09,East,92,3.6,5.8,70,0.00,,SKC,0.00,VWS V13.01,2013-02-09 16:24:00,
2013-02-09 10:25:00,59.0,48.9,30.09,East,91,5.8,5.8,69,0.00,,SKC,0.00,VWS V13.01,2013-02-09 16:25:00,
2013-02-09 10:26:00,59.2,49.4,30.09,ENE,78,2.2,5.8,70,0.00,,SKC,0.00,VWS V13.01,2013-02-09 16:26:00,
2013-02-09 10:27:00,59.4,50.0,30.09,East,101,2.2,3.1,71,0.00,,SKC,0.00,VWS V13.01,2013-02-09 16:27:00,
2013-02-09 10:28:00,59.5,49.8,30.09,ESE,122,4.0,4.9,70,0.00,,SKC,0.00,VWS V13.01,2013-02-09 16:28:00,
2013-02-09 10:29:00,59.7,50.3,30.09,ENE,60,5.8,5.8,71,0.00,,SKC,0.00,VWS V13.01,2013-02-09 16:29:00,
2013-02-09 10:30:00,59.9,50.1,30.09,ESE,106,6.3,6.3,70,0.00,,SKC,0.00,VWS V13.01,2013-02-09 16:30:00,
2013-02-09 10:31:00,60.1,50.3,30.09,ENE,61,5.4,6.3,70,0.00,,SKC,0.00,VWS V13.01,2013-02-09 16:31:00,
2013-02-09 10:32:00,60.3,50.1,30.09,ESE,118,5.8,5.8,69,0.00,,SKC,0.00,VWS V13.01,2013-02-09 16:32:00,
2013-02-09 10:33:00,60.3,50.1,30.09,ENE,65,4.0,5.8,69,0.00,,SKC,0.00,VWS V13.01,2013-02-09 16:33:00,
2013-02-09 10:34:00,60.4,50.2,30.09,ENE,60,4.9,5.4,69,0.00,,SKC,0.00,VWS V13.01,2013-02-09 16:34:00,
2013-02-09 10:35:00,60.4,50.2,30.09,NE,50,3.6,4.9,69,0.00,,SKC,0.00,VWS V13.01,2013-02-09 16:35:00,
2013-02-09 10:36:00,60.4,50.2,30.09,East,93,3.1,3.6,69,0.00,,SKC,0.00,VWS V13.01,2013-02-09 16:36:00,
2013-02-09 10:37:00,60.4,50.2,30.09,NE,56,3.1,5.4,69,0.00,,SKC,0.00,VWS V13.01,2013-02-09 16:37:00,
2013-02-09 10:38:00,60.4,49.8,30.09,ENE,60,3.6,5.4,68,0.00,,SKC,0.00,VWS V13.01,2013-02-09 16:38:00,
2013-02-09 10:39:00,60.6,50.0,30.09,SE,127,3.6,4.9,68,0.00,,SKC,0.00,VWS V13.01,2013-02-09 16:39:00,
2013-02-09 10:40:00,60.6,50.4,30.09,South,172,3.1,4.9,69,0.00,,SKC,0.00,VWS V13.01,2013-02-09 16:40:00,
2013-02-09 10:41:00,60.8,50.6,30.09,East,92,3.6,4.9,69,0.00,,SKC,0.00,VWS V13.01,2013-02-09 16:41:00,
2013-02-09 10:42:00,60.8,50.6,30.09,SSE,151,5.8,5.8,69,0.00,,SKC,0.00,VWS V13.01,2013-02-09 16:42:00,
2013-02-09 10:43:00,61.0,50.8,30.09,SSE,150,3.1,5.8,69,0.00,,SKC,0.00,VWS V13.01,2013-02-09 16:43:00,
2013-02-09 10:44:00,61.3,51.1,30.09,ESE,105,3.6,3.6,69,0.00,,SKC,0.00,VWS V13.01,2013-02-09 16:44:00,
2013-02-09 10:45:00,61.3,51.1,30.09,ESE,120,2.7,5.8,69,0.00,,SKC,0.00,VWS V13.01,2013-02-09 16:45:00,
2013-02-09 10:46:00,61.7,51.4,30.09,SSE,156,4.0,6.3,69,0.00,,SKC,0.00,VWS V13.01,2013-02-09 16:46:00,
2013-02-09 10:47:00,62.1,51.8,30.09,ENE,74,3.6,4.5,69,0.00,,SKC,0.00,VWS V13.01,2013-02-09 16:47:00,
2013-02-09 10:48:00,62.1,51.8,30.09,ESE,122,3.6,4.9,69,0.00,,SKC,0.00,VWS V13.01,2013-02-09 16:48:00,
2013-02-09 10:49:00,62.4,52.1,30.09,East,95,8.3,8.3,69,0.00,,SKC,0.00,VWS V13.01,2013-02-09 16:49:00,
2013-02-09 10:50:00,62.6,51.9,30.09,East,94,4.9,8.3,68,0.00,,SKC,0.00,VWS V13.01,2013-02-09 16:50:00,
2013-02-09 10:51:00,62.8,52.1,30.09,East,93,2.7,4.9,68,0.00,,SKC,0.00,VWS V13.01,2013-02-09 16:51:00,
2013-02-09 10:52:00,63.0,52.2,30.09,ESE,102,4.9,4.9,68,0.00,,SKC,0.00,VWS V13.01,2013-02-09 16:52:00,
2013-02-09 10:53:00,63.0,52.2,30.09,NE,46,2.7,4.9,68,0.00,,SKC,0.00,VWS V13.01,2013-02-09 16:53:00,
2013-02-09 10:54:00,63.1,52.4,30.09,South,183,4.0,5.4,68,0.00,,SKC,0.00,VWS V13.01,2013-02-09 16:54:00,
2013-02-09 10:55:00,63.1,52.4,30.09,SE,129,2.7,4.0,68,0.00,,SKC,0.00,VWS V13.01,2013-02-09 16:55:00,
2013-02-09 10:56:00,63.3,52.6,30.09,ESE,107,5.8,6.3,68,0.00,,SKC,0.00,VWS V13.01,2013-02-09 16:56:00,
2013-02-09 10:57:00,63.3,52.6,30.09,ESE,109,3.1,5.8,68,0.00,,SKC,0.00,VWS V13.01,2013-02-09 16:57:00,
2013-02-09 10:58:00,63.3,52.6,30.09,ESE,110,3.6,4.0,68,0.00,,SKC,0.00,VWS V13.01,2013-02-09 16:58:00,
2013-02-09 10:59:00,63.7,52.9,30.09,ENE,68,6.3,8.1,68,0.00,,SKC,0.00,VWS V13.01,2013-02-09 16:59:00,
2013-02-09 11:00:00,63.7,52.9,30.09,SE,133,5.4,6.3,68,0.00,,SKC,0.00,VWS V13.01,2013-02-09 17:00:00,
2013-02-09 11:01:00,63.7,52.9,30.09,SSE,149,6.3,7.2,68,0.00,,SKC,0.00,VWS V13.01,2013-02-09 17:01:00,
2013-02-09 11:02:00,63.9,53.1,30.09,ESE,107,3.6,6.3,68,0.00,,SKC,0.00,VWS V13.01,2013-02-09 17:02:00,
2013-02-09 11:03:00,63.9,53.1,30.09,ESE,118,6.7,8.1,68,0.00,,SKC,0.00,VWS V13.01,2013-02-09 17:03:00,
2013-02-09 11:04:00,63.9,53.1,30.09,SE,130,3.6,6.7,68,0.00,,SKC,0.00,VWS V13.01,2013-02-09 17:04:00,
2013-02-09 11:05:00,63.7,52.5,30.09,East,96,5.4,5.4,67,0.00,,SKC,0.00,VWS V13.01,2013-02-09 17:05:00,
2013-02-09 11:06:00,63.9,53.1,30.09,East,79,4.0,5.4,68,0.00,,SKC,0.00,VWS V13.01,2013-02-09 17:06:00,
2013-02-09 11:07:00,63.9,53.1,30.09,SE,136,7.6,7.6,68,0.00,,SKC,0.00,VWS V13.01,2013-02-09 17:07:00,
2013-02-09 11:08:00,63.9,53.1,30.09,ESE,110,3.1,7.6,68,0.00,,SKC,0.00,VWS V13.01,2013-02-09 17:08:00,
2013-02-09 11:09:00,63.7,52.9,30.09,East,82,6.7,7.6,68,0.00,,SKC,0.00,VWS V13.01,2013-02-09 17:09:00,
2013-02-09 11:10:00,63.9,53.1,30.09,SE,144,4.0,6.7,68,0.00,,SKC,0.00,VWS V13.01,2013-02-09 17:10:00,
2013-02-09 11:11:00,63.9,53.1,30.09,ENE,78,2.2,4.0,68,0.00,,SKC,0.00,VWS V13.01,2013-02-09 17:11:00,
2013-02-09 11:12:00,63.9,53.1,30.09,ENE,65,3.1,5.8,68,0.00,,SKC,0.00,VWS V13.01,2013-02-09 17:12:00,
2013-02-09 11:13:00,63.9,53.1,30.09,East,99,5.4,6.3,68,0.00,,SKC,0.00,VWS V13.01,2013-02-09 17:13:00,
2013-02-09 11:14:00,63.9,53.1,30.09,SE,139,4.9,7.6,68,0.00,,SKC,0.00,VWS V13.01,2013-02-09 17:14:00,
2013-02-09 11:15:00,64.0,53.3,30.09,ESE,113,5.4,5.8,68,0.00,,SKC,0.00,VWS V13.01,2013-02-09 17:15:00,
2013-02-09 11:16:00,64.0,53.3,30.09,East,91,3.6,6.3,68,0.00,,SKC,0.00,VWS V13.01,2013-02-09 17:16:00,
2013-02-09 11:17:00,64.0,53.3,30.09,ESE,122,4.9,8.3,68,0.00,,SKC,0.00,VWS V13.01,2013-02-09 17:17:00,
2013-02-09 11:18:00,63.9,53.1,30.09,East,91,5.8,8.1,68,0.00,,SKC,0.00,VWS V13.01,2013-02-09 17:18:00,
2013-02-09 11:19:00,64.0,53.3,30.09,East,94,5.4,5.8,68,0.00,,SKC,0.00,VWS V13.01,2013-02-09 17:19:00,
2013-02-09 11:20:00,64.0,53.3,30.09,SE,136,5.4,8.1,68,0.00,,SKC,0.00,VWS V13.01,2013-02-09 17:20:00,
2013-02-09 11:21:00,64.0,53.3,30.09,ESE,116,5.8,5.8,68,0.00,,SKC,0.00,VWS V13.01,2013-02-09 17:21:00,
2013-02-09 11:22:00,63.9,53.1,30.09,ESE,107,2.7,5.8,68,0.00,,SKC,0.00,VWS V13.01,2013-02-09 17:22:00,
2013-02-09 11:23:00,63.9,53.1,30.09,South,186,2.7,7.6,68,0.00,,SKC,0.00,VWS V13.01,2013-02-09 17:23:00,
2013-02-09 11:24:00,63.9,53.1,30.09,East,89,4.9,5.8,68,0.00,,SKC,0.00,VWS V13.01,2013-02-09 17:24:00,
2013-02-09 11:25:00,63.9,53.1,30.09,ENE,77,5.4,8.7,68,0.00,,SKC,0.00,VWS V13.01,2013-02-09 17:25:00,
2013-02-09 11:26:00,63.9,53.1,30.09,East,90,6.3,8.3,68,0.00,,SKC,0.00,VWS V13.01,2013-02-09 17:26:00,
2013-02-09 11:27:00,63.9,53.1,30.09,ENE,64,10.1,10.1,68,0.00,,SKC,0.00,VWS V13.01,2013-02-09 17:27:00,
2013-02-09 11:28:00,63.7,52.5,30.09,East,92,6.3,10.1,67,0.00,,SKC,0.00,VWS V13.01,2013-02-09 17:28:00,
2013-02-09 11:29:00,63.5,52.8,30.09,ESE,112,5.4,6.3,68,0.00,,SKC,0.00,VWS V13.01,2013-02-09 17:29:00,
2013-02-09 11:30:00,63.5,52.8,30.09,East,89,5.8,6.3,68,0.00,,SKC,0.00,VWS V13.01,2013-02-09 17:30:00,
2013-02-09 11:31:00,63.5,52.8,30.09,SE,138,5.4,5.8,68,0.00,,SKC,0.00,VWS V13.01,2013-02-09 17:31:00,
2013-02-09 11:32:00,63.5,52.8,30.09,SSE,153,3.6,5.4,68,0.00,,SKC,0.00,VWS V13.01,2013-02-09 17:32:00,
2013-02-09 11:33:00,63.5,52.8,30.09,East,98,7.6,8.3,68,0.00,,SKC,0.00,VWS V13.01,2013-02-09 17:33:00,
2013-02-09 11:34:00,63.7,52.9,30.09,East,90,4.0,8.1,68,0.00,,SKC,0.00,VWS V13.01,2013-02-09 17:34:00,
2013-02-09 11:35:00,63.7,52.9,30.09,East,85,7.6,7.6,68,0.00,,SKC,0.00,VWS V13.01,2013-02-09 17:35:00,
2013-02-09 11:36:00,63.9,53.1,30.09,ENE,78,6.3,7.6,68,0.00,,SKC,0.00,VWS V13.01,2013-02-09 17:36:00,
2013-02-09 11:37:00,63.9,53.1,30.09,ENE,57,6.3,7.6,68,0.00,,SKC,0.00,VWS V13.01,2013-02-09 17:37:00,
2013-02-09 11:38:00,63.9,53.1,30.06,East,89,8.1,8.1,68,0.00,,SKC,0.00,VWS V13.01,2013-02-09 17:38:00,
2013-02-09 11:39:00,64.0,53.3,30.06,SE,129,8.7,8.7,68,0.00,,SKC,0.00,VWS V13.01,2013-02-09 17:39:00,
2013-02-09 11:40:00,64.0,53.3,30.06,ESE,116,6.3,8.7,68,0.00,,SKC,0.00,VWS V13.01,2013-02-09 17:40:00,
2013-02-09 11:41:00,64.2,53.5,30.06,ESE,115,5.8,8.1,68,0.00,,SKC,0.00,VWS V13.01,2013-02-09 17:41:00,
2013-02-09 11:42:00,64.4,53.2,30.06,ESE,109,5.4,9.2,67,0.00,,SKC,0.00,VWS V13.01,2013-02-09 17:42:00,
2013-02-09 11:43:00,64.4,53.2,30.06,SE,131,4.9,8.3,67,0.00,,SKC,0.00,VWS V13.01,2013-02-09 17:43:00,
2013-02-09 11:44:00,64.4,53.2,30.06,ESE,113,4.0,7.2,67,0.00,,SKC,0.00,VWS V13.01,2013-02-09 17:44:00,
2013-02-09 11:45:00,64.4,53.2,30.06,SE,128,5.4,5.4,67,0.00,,SKC,0.00,VWS V13.01,2013-02-09 17:45:00,
2013-02-09 11:46:00,64.6,53.4,30.06,ESE,115,3.6,6.3,67,0.00,,SKC,0.00,VWS V13.01,2013-02-09 17:46:00,
2013-02-09 11:47:00,64.6,53.4,30.06,East,97,9.6,9.6,67,0.00,,SKC,0.00,VWS V13.01,2013-02-09 17:47:00,
2013-02-09 11:48:00,64.6,53.4,30.06,ESE,111,5.8,9.6,67,0.00,,SKC,0.00,VWS V13.01,2013-02-09 17:48:00,
2013-02-09 11:49:00,64.6,53.4,30.06,ESE,106,5.4,6.3,67,0.00,,SKC,0.00,VWS V13.01,2013-02-09 17:49:00,
2013-02-09 11:50:00,64.8,53.6,30.06,ESE,111,5.4,5.4,67,0.00,,SKC,0.00,VWS V13.01,2013-02-09 17:50:00,
2013-02-09 11:51:00,64.8,53.6,30.06,East,101,5.4,7.6,67,0.00,,SKC,0.00,VWS V13.01,2013-02-09 17:51:00,
2013-02-09 11:52:00,64.8,53.6,30.06,East,101,4.0,8.1,67,0.00,,SKC,0.00,VWS V13.01,2013-02-09 17:52:00,
2013-02-09 11:53:00,64.8,53.6,30.09,ESE,107,6.3,7.6,67,0.00,,SKC,0.00,VWS V13.01,2013-02-09 17:53:00,
2013-02-09 11:54:00,64.6,53.4,30.09,ESE,111,5.4,8.3,67,0.00,,SKC,0.00,VWS V13.01,2013-02-09 17:54:00,
2013-02-09 11:55:00,64.6,53.4,30.09,East,83,8.7,8.7,67,0.00,,SKC,0.00,VWS V13.01,2013-02-09 17:55:00,
2013-02-09 11:56:00,64.6,53.4,30.09,ESE,114,5.4,8.7,67,0.00,,SKC,0.00,VWS V13.01,2013-02-09 17:56:00,
2013-02-09 11:57:00,64.6,53.4,30.09,ENE,67,2.2,5.8,67,0.00,,SKC,0.00,VWS V13.01,2013-02-09 17:57:00,
2013-02-09 11:58:00,64.4,53.2,30.09,ENE,69,5.4,5.4,67,0.00,,SKC,0.00,VWS V13.01,2013-02-09 17:58:00,
2013-02-09 11:59:00,64.4,53.2,30.09,ESE,109,5.4,5.4,67,0.00,,SKC,0.00,VWS V13.01,2013-02-09 17:59:00,
2013-02-09 12:00:00,64.4,53.2,30.09,East,80,5.4,8.1,67,0.00,,SKC,0.00,VWS V13.01,2013-02-09 18:00:00,
2013-02-09 12:01:00,64.4,53.2,30.09,East,93,7.6,8.1,67,0.00,,SKC,0.00,VWS V13.01,2013-02-09 18:01:00,
2013-02-09 12:02:00,64.4,53.2,30.09,ESE,104,4.9,9.2,67,0.00,,SKC,0.00,VWS V13.01,2013-02-09 18:02:00,
2013-02-09 12:03:00,64.4,53.2,30.09,East,85,3.6,6.3,67,0.00,,SKC,0.00,VWS V13.01,2013-02-09 18:03:00,
2013-02-09 12:04:00,64.2,53.5,30.09,SE,127,5.8,10.5,68,0.00,,SKC,0.00,VWS V13.01,2013-02-09 18:04:00,
2013-02-09 12:05:00,64.2,53.5,30.09,ESE,104,7.6,7.6,68,0.00,,SKC,0.00,VWS V13.01,2013-02-09 18:05:00,
2013-02-09 12:06:00,64.2,53.5,30.09,SE,138,7.6,7.6,68,0.00,,SKC,0.00,VWS V13.01,2013-02-09 18:06:00,
2013-02-09 12:07:00,63.9,53.1,30.06,South,186,6.3,7.6,68,0.00,,SKC,0.00,VWS V13.01,2013-02-09 18:07:00,
2013-02-09 12:08:00,63.9,53.1,30.06,East,89,11.0,11.0,68,0.00,,SKC,0.00,VWS V13.01,2013-02-09 18:08:00,
2013-02-09 12:09:00,63.7,52.9,30.06,ESE,108,5.4,11.0,68,0.00,,SKC,0.00,VWS V13.01,2013-02-09 18:09:00,
2013-02-09 12:10:00,63.5,52.8,30.06,East,99,7.6,8.7,68,0.00,,SKC,0.00,VWS V13.01,2013-02-09 18:10:00,
2013-02-09 12:11:00,63.5,52.8,30.06,ESE,103,5.8,7.6,68,0.00,,SKC,0.00,VWS V13.01,2013-02-09 18:11:00,
2013-02-09 12:12:00,63.5,52.8,30.06,SSE,149,4.9,5.8,68,0.00,,SKC,0.00,VWS V13.01,2013-02-09 18:12:00,
2013-02-09 12:13:00,63.7,52.9,30.06,ESE,111,5.4,8.1,68,0.00,,SKC,0.00,VWS V13.01,2013-02-09 18:13:00,
2013-02-09 12:14:00,63.7,52.9,30.06,SE,126,5.8,7.6,68,0.00,,SKC,0.00,VWS V13.01,2013-02-09 18:14:00,
2013-02-09 12:15:00,63.7,52.9,30.06,ESE,113,8.3,8.3,68,0.00,,SKC,0.00,VWS V13.01,2013-02-09 18:15:00,
2013-02-09 12:16:00,63.9,53.1,30.06,East,97,8.1,10.1,68,0.00,,SKC,0.00,VWS V13.01,2013-02-09 18:16:00,
2013-02-09 12:17:00,63.9,53.1,30.06,East,85,8.3,8.3,68,0.00,,SKC,0.00,VWS V13.01,2013-02-09 18:17:00,
2013-02-09 12:18:00,63.9,53.1,30.06,East,87,8.1,8.7,68,0.00,,SKC,0.00,VWS V13.01,2013-02-09 18:18:00,
2013-02-09 12:19:00,63.9,53.1,30.06,ESE,102,6.7,10.5,68,0.00,,SKC,0.00,VWS V13.01,2013-02-09 18:19:00,
2013-02-09 12:20:00,63.7,52.9,30.06,SE,127,5.8,7.2,68,0.00,,SKC,0.00,VWS V13.01,2013-02-09 18:20:00,
2013-02-09 12:21:00,63.7,52.9,30.06,SE,129,4.9,7.6,68,0.00,,SKC,0.00,VWS V13.01,2013-02-09 18:21:00,
2013-02-09 12:22:00,63.9,53.1,30.06,East,100,8.3,8.3,68,0.00,,SKC,0.00,VWS V13.01,2013-02-09 18:22:00,
2013-02-09 12:23:00,63.9,53.1,30.06,East,90,5.4,8.3,68,0.00,,SKC,0.00,VWS V13.01,2013-02-09 18:23:00,
2013-02-09 12:24:00,64.0,53.3,30.06,East,94,8.7,8.7,68,0.00,,SKC,0.00,VWS V13.01,2013-02-09 18:24:00,
2013-02-09 12:25:00,64.0,53.3,30.06,ESE,113,3.6,8.7,68,0.00,,SKC,0.00,VWS V13.01,2013-02-09 18:25:00,
2013-02-09 12:26:00,64.2,53.5,30.06,East,83,5.8,5.8,68,0.00,,SKC,0.00,VWS V13.01,2013-02-09 18:26:00,
2013-02-09 12:27:00,64.2,53.5,30.06,East,88,4.9,8.3,68,0.00,,SKC,0.00,VWS V13.01,2013-02-09 18:27:00,
2013-02-09 12:28:00,64.4,53.6,30.06,East,91,5.4,8.3,68,0.00,,SKC,0.00,VWS V13.01,2013-02-09 18:28:00,
2013-02-09 12:29:00,64.4,53.2,30.06,NE,54,6.7,11.0,67,0.00,,SKC,0.00,VWS V13.01,2013-02-09 18:29:00,
2013-02-09 12:30:00,64.4,53.6,30.06,East,94,7.6,7.6,68,0.00,,SKC,0.00,VWS V13.01,2013-02-09 18:30:00,
2013-02-09 12:31:00,64.4,53.2,30.06,South,190,5.8,10.5,67,0.00,,SKC,0.00,VWS V13.01,2013-02-09 18:31:00,
2013-02-09 12:32:00,64.4,53.6,30.06,ESE,120,7.2,7.2,68,0.00,,SKC,0.00,VWS V13.01,2013-02-09 18:32:00,
2013-02-09 12:33:00,64.4,53.6,30.06,ESE,110,8.3,8.3,68,0.00,,SKC,0.00,VWS V13.01,2013-02-09 18:33:00,
2013-02-09 12:34:00,64.4,53.2,30.06,East,95,5.8,8.7,67,0.00,,SKC,0.00,VWS V13.01,2013-02-09 18:34:00,
2013-02-09 12:35:00,64.4,53.2,30.06,East,94,3.1,9.2,67,0.00,,SKC,0.00,VWS V13.01,2013-02-09 18:35:00,
2013-02-09 12:36:00,64.4,53.2,30.06,East,86,8.1,8.1,67,0.00,,SKC,0.00,VWS V13.01,2013-02-09 18:36:00,
2013-02-09 12:37:00,64.2,53.5,30.06,ESE,112,4.0,8.1,68,0.00,,SKC,0.00,VWS V13.01,2013-02-09 18:37:00,
2013-02-09 12:38:00,64.2,53.5,30.06,ESE,107,7.6,7.6,68,0.00,,SKC,0.00,VWS V13.01,2013-02-09 18:38:00,
2013-02-09 12:39:00,64.2,53.5,30.06,East,84,8.3,8.3,68,0.00,,SKC,0.00,VWS V13.01,2013-02-09 18:39:00,
2013-02-09 12:40:00,64.2,53.5,30.06,ESE,116,3.6,8.7,68,0.00,,SKC,0.00,VWS V13.01,2013-02-09 18:40:00,
2013-02-09 12:41:00,64.4,53.2,30.06,East,87,4.0,7.6,67,0.00,,SKC,0.00,VWS V13.01,2013-02-09 18:41:00,
2013-02-09 12:42:00,64.4,53.6,30.06,ESE,103,8.7,8.7,68,0.00,,SKC,0.00,VWS V13.01,2013-02-09 18:42:00,
2013-02-09 12:43:00,64.6,54.2,30.06,ESE,106,4.0,8.7,69,0.00,,SKC,0.00,VWS V13.01,2013-02-09 18:43:00,
2013-02-09 12:44:00,64.4,53.6,30.06,East,89,8.3,8.3,68,0.00,,SKC,0.00,VWS V13.01,2013-02-09 18:44:00,
2013-02-09 12:45:00,64.6,53.8,30.06,ESE,121,5.4,8.3,68,0.00,,SKC,0.00,VWS V13.01,2013-02-09 18:45:00,
2013-02-09 12:46:00,64.6,53.4,30.06,East,81,8.1,8.1,67,0.00,,SKC,0.00,VWS V13.01,2013-02-09 18:46:00,
2013-02-09 12:47:00,64.6,53.8,30.06,SSE,147,7.6,8.1,68,0.00,,SKC,0.00,VWS V13.01,2013-02-09 18:47:00,
2013-02-09 12:48:00,64.6,53.8,30.06,ESE,119,6.7,8.7,68,0.00,,SKC,0.00,VWS V13.01,2013-02-09 18:48:00,
2013-02-09 12:49:00,64.8,54.0,30.06,ESE,116,6.3,6.7,68,0.00,,SKC,0.00,VWS V13.01,2013-02-09 18:49:00,
2013-02-09 12:50:00,64.8,54.0,30.06,ESE,117,7.6,7.6,68,0.00,,SKC,0.00,VWS V13.01,2013-02-09 18:50:00,
2013-02-09 12:51:00,64.9,54.1,30.06,East,97,4.9,8.3,68,0.00,,SKC,0.00,VWS V13.01,2013-02-09 18:51:00,
2013-02-09 12:52:00,64.9,54.5,30.06,ESE,104,8.7,8.7,69,0.00,,SKC,0.00,VWS V13.01,2013-02-09 18:52:00,
2013-02-09 12:53:00,64.9,53.7,30.06,ESE,109,7.6,9.2,67,0.00,,SKC,0.00,VWS V13.01,2013-02-09 18:53:00,
2013-02-09 12:54:00,64.8,54.0,30.06,East,86,7.6,10.1,68,0.00,,SKC,0.00,VWS V13.01,2013-02-09 18:54:00,
2013-02-09 12:55:00,64.9,54.1,30.06,East,83,6.3,8.3,68,0.00,,SKC,0.00,VWS V13.01,2013-02-09 18:55:00,
2013-02-09 12:56:00,64.9,54.1,30.06,East,92,6.3,6.3,68,0.00,,SKC,0.00,VWS V13.01,2013-02-09 18:56:00,
2013-02-09 12:57:00,64.8,54.0,30.06,ESE,103,5.4,8.1,68,0.00,,SKC,0.00,VWS V13.01,2013-02-09 18:57:00,
2013-02-09 12:58:00,64.8,54.0,30.06,SE,136,8.3,8.3,68,0.00,,SKC,0.00,VWS V13.01,2013-02-09 18:58:00,
2013-02-09 12:59:00,64.8,54.0,30.06,ESE,123,6.3,8.7,68,0.00,,SKC,0.00,VWS V13.01,2013-02-09 18:59:00,
2013-02-09 13:00:00,64.8,54.0,30.06,SE,132,5.8,7.6,68,0.00,,SKC,0.00,VWS V13.01,2013-02-09 19:00:00,
2013-02-09 13:01:00,64.8,54.0,30.06,ESE,102,8.3,8.3,68,0.00,,SKC,0.00,VWS V13.01,2013-02-09 19:01:00,
2013-02-09 13:02:00,64.8,54.0,30.06,SE,133,7.6,8.3,68,0.00,,SKC,0.00,VWS V13.01,2013-02-09 19:02:00,
2013-02-09 13:03:00,64.8,54.0,30.06,ESE,119,6.7,8.7,68,0.00,,SKC,0.00,VWS V13.01,2013-02-09 19:03:00,
2013-02-09 13:04:00,64.9,54.5,30.06,East,93,5.4,7.6,69,0.00,,SKC,0.00,VWS V13.01,2013-02-09 19:04:00,
2013-02-09 13:05:00,64.9,54.5,30.06,SE,129,8.3,8.3,69,0.00,,SKC,0.00,VWS V13.01,2013-02-09 19:05:00,
2013-02-09 13:06:00,65.1,54.7,30.06,East,98,6.3,8.7,69,0.00,,SKC,0.00,VWS V13.01,2013-02-09 19:06:00,
2013-02-09 13:07:00,65.1,54.3,30.06,SE,133,5.4,6.3,68,0.00,,SKC,0.00,VWS V13.01,2013-02-09 19:07:00,
2013-02-09 13:08:00,65.3,54.9,30.03,East,95,6.3,6.7,69,0.00,,SKC,0.00,VWS V13.01,2013-02-09 19:08:00,
2013-02-09 13:09:00,65.3,54.5,30.03,SE,136,5.8,8.3,68,0.00,,SKC,0.00,VWS V13.01,2013-02-09 19:09:00,
2013-02-09 13:10:00,65.5,55.0,30.03,East,86,5.4,8.3,69,0.00,,SKC,0.00,VWS V13.01,2013-02-09 19:10:00,
2013-02-09 13:11:00,65.5,54.7,30.03,East,95,10.1,10.1,68,0.00,,SKC,0.00,VWS V13.01,2013-02-09 19:11:00,
2013-02-09 13:12:00,65.5,55.0,30.03,ESE,115,4.0,10.1,69,0.00,,SKC,0.00,VWS V13.01,2013-02-09 19:12:00,
2013-02-09 13:13:00,65.5,54.7,30.03,ESE,110,6.3,8.3,68,0.00,,SKC,0.00,VWS V13.01,2013-02-09 19:13:00,
2013-02-09 13:14:00,65.7,54.8,30.03,East,85,5.8,9.6,68,0.00,,SKC,0.00,VWS V13.01,2013-02-09 19:14:00,
2013-02-09 13:15:00,65.7,55.2,30.03,SSE,148,8.1,8.3,69,0.00,,SKC,0.00,VWS V13.01,2013-02-09 19:15:00,
2013-02-09 13:16:00,65.7,55.2,30.03,SSE,154,4.9,8.1,69,0.00,,SKC,0.00,VWS V13.01,2013-02-09 19:16:00,
2013-02-09 13:17:00,65.7,54.8,30.03,East,86,5.8,7.6,68,0.00,,SKC,0.00,VWS V13.01,2013-02-09 19:17:00,
2013-02-09 13:18:00,65.7,54.8,30.03,ENE,61,8.3,8.7,68,0.00,,SKC,0.00,VWS V13.01,2013-02-09 19:18:00,
2013-02-09 13:19:00,65.7,54.8,30.03,ENE,66,8.1,8.3,68,0.00,,SKC,0.00,VWS V13.01,2013-02-09 19:19:00,
2013-02-09 13:20:00,65.7,54.8,30.03,East,86,5.4,9.2,68,0.00,,SKC,0.00,VWS V13.01,2013-02-09 19:20:00,
2013-02-09 13:21:00,65.7,54.8,30.03,SSE,154,8.3,8.3,68,0.00,,SKC,0.00,VWS V13.01,2013-02-09 19:21:00,
2013-02-09 13:22:00,65.5,54.7,30.03,SE,131,6.3,9.2,68,0.00,,SKC,0.00,VWS V13.01,2013-02-09 19:22:00,
2013-02-09 13:23:00,65.5,54.7,30.03,ESE,115,6.3,8.1,68,0.00,,SKC,0.00,VWS V13.01,2013-02-09 19:23:00,
2013-02-09 13:24:00,65.5,54.7,30.03,SE,126,8.7,8.7,68,0.00,,SKC,0.00,VWS V13.01,2013-02-09 19:24:00,
2013-02-09 13:25:00,65.5,54.7,30.03,ESE,103,9.6,9.6,68,0.00,,SKC,0.00,VWS V13.01,2013-02-09 19:25:00,
2013-02-09 13:26:00,65.5,54.7,30.03,East,99,5.4,10.1,68,0.00,,SKC,0.00,VWS V13.01,2013-02-09 19:26:00,
2013-02-09 13:27:00,65.5,55.0,30.03,ESE,103,3.6,6.3,69,0.00,,SKC,0.00,VWS V13.01,2013-02-09 19:27:00,
2013-02-09 13:28:00,65.7,55.2,30.03,ESE,112,5.8,6.3,69,0.00,,SKC,0.00,VWS V13.01,2013-02-09 19:28:00,
2013-02-09 13:29:00,65.7,55.2,30.03,SE,126,5.4,5.8,69,0.00,,SKC,0.00,VWS V13.01,2013-02-09 19:29:00,
2013-02-09 13:30:00,65.8,55.8,30.03,ESE,118,3.6,5.8,70,0.00,,SKC,0.00,VWS V13.01,2013-02-09 19:30:00,
2013-02-09 13:31:00,65.8,55.8,30.03,ESE,122,4.0,5.4,70,0.00,,SKC,0.00,VWS V13.01,2013-02-09 19:31:00,
2013-02-09 13:32:00,65.8,55.4,30.03,ENE,71,3.6,5.4,69,0.00,,SKC,0.00,VWS V13.01,2013-02-09 19:32:00,
2013-02-09 13:33:00,65.8,55.4,30.03,East,98,8.3,8.3,69,0.00,,SKC,0.00,VWS V13.01,2013-02-09 19:33:00,
2013-02-09 13:34:00,65.7,55.2,30.03,East,83,5.4,10.1,69,0.00,,SKC,0.00,VWS V13.01,2013-02-09 19:34:00,
2013-02-09 13:35:00,65.7,54.8,30.03,East,79,5.8,8.3,68,0.00,,SKC,0.00,VWS V13.01,2013-02-09 19:35:00,
2013-02-09 13:36:00,65.7,54.8,30.03,ESE,114,6.3,6.3,68,0.00,,SKC,0.00,VWS V13.01,2013-02-09 19:36:00,
2013-02-09 13:37:00,65.7,55.2,30.03,ESE,104,5.4,10.1,69,0.00,,SKC,0.00,VWS V13.01,2013-02-09 19:37:00,
2013-02-09 13:38:00,65.5,55.0,30.03,East,85,5.4,7.2,69,0.00,,SKC,0.00,VWS V13.01,2013-02-09 19:38:00,
2013-02-09 13:39:00,65.5,55.0,30.03,SE,133,6.3,6.3,69,0.00,,SKC,0.00,VWS V13.01,2013-02-09 19:39:00,
2013-02-09 13:40:00,65.5,55.0,30.03,East,90,8.1,9.6,69,0.00,,SKC,0.00,VWS V13.01,2013-02-09 19:40:00,
2013-02-09 13:41:00,65.3,54.9,30.03,SE,136,5.4,8.1,69,0.00,,SKC,0.00,VWS V13.01,2013-02-09 19:41:00,
2013-02-09 13:42:00,65.3,54.9,30.03,SE,139,5.8,7.6,69,0.00,,SKC,0.00,VWS V13.01,2013-02-09 19:42:00,
2013-02-09 13:43:00,65.3,54.9,30.03,East,83,8.1,8.1,69,0.00,,SKC,0.00,VWS V13.01,2013-02-09 19:43:00,
2013-02-09 13:44:00,65.3,54.9,30.03,ESE,107,7.2,8.7,69,0.00,,SKC,0.00,VWS V13.01,2013-02-09 19:44:00,
2013-02-09 13:45:00,65.3,54.5,30.03,SE,128,6.7,7.2,68,0.00,,SKC,0.00,VWS V13.01,2013-02-09 19:45:00,
2013-02-09 13:46:00,65.5,55.0,30.03,East,96,10.1,10.1,69,0.00,,SKC,0.00,VWS V13.01,2013-02-09 19:46:00,
2013-02-09 13:47:00,65.5,54.7,30.03,ENE,64,8.1,10.1,68,0.00,,SKC,0.00,VWS V13.01,2013-02-09 19:47:00,
2013-02-09 13:48:00,65.5,55.0,30.03,ESE,118,6.3,8.1,69,0.00,,SKC,0.00,VWS V13.01,2013-02-09 19:48:00,
2013-02-09 13:49:00,65.5,55.0,30.03,SE,136,3.6,6.3,69,0.00,,SKC,0.00,VWS V13.01,2013-02-09 19:49:00,
2013-02-09 13:50:00,65.5,55.0,30.03,SSE,160,5.8,10.1,69,0.00,,SKC,0.00,VWS V13.01,2013-02-09 19:50:00,
2013-02-09 13:51:00,65.5,54.7,30.03,East,92,5.8,8.7,68,0.00,,SKC,0.00,VWS V13.01,2013-02-09 19:51:00,
2013-02-09 13:52:00,65.5,55.0,30.03,ESE,121,5.4,6.3,69,0.00,,SKC,0.00,VWS V13.01,2013-02-09 19:52:00,
2013-02-09 13:53:00,65.5,55.0,30.03,ESE,118,3.6,6.3,69,0.00,,SKC,0.00,VWS V13.01,2013-02-09 19:53:00,
2013-02-09 13:54:00,65.7,55.6,30.03,ESE,115,4.0,4.0,70,0.00,,SKC,0.00,VWS V13.01,2013-02-09 19:54:00,
2013-02-09 13:55:00,65.7,55.2,30.03,East,91,7.6,8.7,69,0.00,,SKC,0.00,VWS V13.01,2013-02-09 19:55:00,
2013-02-09 13:56:00,65.7,54.8,30.03,ENE,76,8.3,8.7,68,0.00,,SKC,0.00,VWS V13.01,2013-02-09 19:56:00,
2013-02-09 13:57:00,65.7,54.8,30.03,ESE,123,6.3,8.7,68,0.00,,SKC,0.00,VWS V13.01,2013-02-09 19:57:00,
2013-02-09 13:58:00,65.7,55.2,30.03,East,80,7.2,7.2,69,0.00,,SKC,0.00,VWS V13.01,2013-02-09 19:58:00,
2013-02-09 13:59:00,65.7,55.2,30.03,ESE,121,2.7,7.2,69,0.00,,SKC,0.00,VWS V13.01,2013-02-09 19:59:00,
2013-02-09 14:00:00,65.7,55.2,30.03,SE,138,9.6,9.6,69,0.00,,SKC,0.00,VWS V13.01,2013-02-09 20:00:00,
2013-02-09 14:01:00,65.7,54.8,30.03,SE,135,7.6,9.6,68,0.00,,SKC,0.00,VWS V13.01,2013-02-09 20:01:00,
2013-02-09 14:02:00,65.7,54.8,30.03,SE,130,4.0,7.6,68,0.00,,SKC,0.00,VWS V13.01,2013-02-09 20:02:00,
2013-02-09 14:03:00,65.7,54.8,30.03,SE,133,8.1,8.7,68,0.00,,SKC,0.00,VWS V13.01,2013-02-09 20:03:00,
2013-02-09 14:04:00,65.7,54.8,30.03,SE,139,5.4,8.1,68,0.00,,SKC,0.00,VWS V13.01,2013-02-09 20:04:00,
2013-02-09 14:05:00,65.7,54.8,30.03,ESE,114,7.6,8.1,68,0.00,,SKC,0.00,VWS V13.01,2013-02-09 20:05:00,
2013-02-09 14:06:00,65.8,55.4,30.03,SSE,168,5.4,7.6,69,0.00,,SKC,0.00,VWS V13.01,2013-02-09 20:06:00,
2013-02-09 14:07:00,65.8,55.4,30.03,ESE,118,4.0,6.7,69,0.00,,SKC,0.00,VWS V13.01,2013-02-09 20:07:00,
2013-02-09 14:08:00,66.0,55.6,30.03,East,82,8.3,8.3,69,0.00,,SKC,0.00,VWS V13.01,2013-02-09 20:08:00,
2013-02-09 14:09:00,65.8,55.4,30.03,ESE,121,5.4,8.3,69,0.00,,SKC,0.00,VWS V13.01,2013-02-09 20:09:00,
2013-02-09 14:10:00,65.8,55.0,30.03,ESE,119,2.7,5.4,68,0.00,,SKC,0.00,VWS V13.01,2013-02-09 20:10:00,
2013-02-09 14:11:00,65.7,54.8,30.03,SE,126,8.3,8.3,68,0.00,,SKC,0.00,VWS V13.01,2013-02-09 20:11:00,
2013-02-09 14:12:00,65.8,55.4,30.03,East,93,5.8,8.3,69,0.00,,SKC,0.00,VWS V13.01,2013-02-09 20:12:00,
2013-02-09 14:13:00,65.8,55.8,30.03,SE,131,6.3,6.3,70,0.00,,SKC,0.00,VWS V13.01,2013-02-09 20:13:00,
2013-02-09 14:14:00,65.8,55.4,30.03,ESE,112,8.7,8.7,69,0.00,,SKC,0.00,VWS V13.01,2013-02-09 20:14:00,
2013-02-09 14:15:00,65.8,55.4,30.03,SE,128,8.3,10.1,69,0.00,,SKC,0.00,VWS V13.01,2013-02-09 20:15:00,
2013-02-09 14:16:00,65.8,55.0,30.03,ESE,117,8.3,8.7,68,0.00,,SKC,0.00,VWS V13.01,2013-02-09 20:16:00,
2013-02-09 14:17:00,65.8,55.4,30.03,ESE,108,8.3,8.3,69,0.00,,SKC,0.00,VWS V13.01,2013-02-09 20:17:00,
2013-02-09 14:18:00,65.8,55.0,30.03,SE,124,5.4,8.3,68,0.00,,SKC,0.00,VWS V13.01,2013-02-09 20:18:00,
2013-02-09 14:19:00,65.8,55.4,30.03,East,96,6.3,7.6,69,0.00,,SKC,0.00,VWS V13.01,2013-02-09 20:19:00,
2013-02-09 14:20:00,65.8,55.4,30.03,SE,144,5.4,10.1,69,0.00,,SKC,0.00,VWS V13.01,2013-02-09 20:20:00,
2013-02-09 14:21:00,65.7,55.2,30.03,East,87,7.6,8.7,69,0.00,,SKC,0.00,VWS V13.01,2013-02-09 20:21:00,
2013-02-09 14:22:00,65.7,55.2,30.03,NE,55,7.6,8.3,69,0.00,,SKC,0.00,VWS V13.01,2013-02-09 20:22:00,
2013-02-09 14:23:00,65.7,55.6,30.00,ENE,77,6.3,7.6,70,0.00,,SKC,0.00,VWS V13.01,2013-02-09 20:23:00,
2013-02-09 14:24:00,65.7,55.2,30.00,ESE,106,5.4,7.6,69,0.00,,SKC,0.00,VWS V13.01,2013-02-09 20:24:00,
2013-02-09 14:25:00,65.7,55.2,30.00,SE,126,6.3,7.6,69,0.00,,SKC,0.00,VWS V13.01,2013-02-09 20:25:00,
2013-02-09 14:26:00,65.7,55.2,30.00,SE,130,5.4,8.1,69,0.00,,SKC,0.00,VWS V13.01,2013-02-09 20:26:00,
2013-02-09 14:27:00,65.7,55.2,30.00,SE,141,3.6,9.2,69,0.00,,SKC,0.00,VWS V13.01,2013-02-09 20:27:00,
2013-02-09 14:28:00,65.7,55.2,30.00,ESE,106,5.8,5.8,69,0.00,,SKC,0.00,VWS V13.01,2013-02-09 20:28:00,
2013-02-09 14:29:00,65.7,55.2,30.00,ESE,106,4.9,6.7,69,0.00,,SKC,0.00,VWS V13.01,2013-02-09 20:29:00,
2013-02-09 14:30:00,65.7,55.2,30.00,East,95,6.3,8.3,69,0.00,,SKC,0.00,VWS V13.01,2013-02-09 20:30:00,
2013-02-09 14:31:00,65.7,55.2,30.00,East,82,5.4,8.1,69,0.00,,SKC,0.00,VWS V13.01,2013-02-09 20:31:00,
2013-02-09 14:32:00,65.5,54.7,30.00,ESE,102,8.1,8.3,68,0.00,,SKC,0.00,VWS V13.01,2013-02-09 20:32:00,
2013-02-09 14:33:00,65.5,55.0,30.00,SE,130,5.4,8.3,69,0.00,,SKC,0.00,VWS V13.01,2013-02-09 20:33:00,
2013-02-09 14:34:00,65.3,54.9,30.00,ESE,122,5.4,10.1,69,0.00,,SKC,0.00,VWS V13.01,2013-02-09 20:34:00,
2013-02-09 14:35:00,65.3,54.9,30.00,SSE,150,5.4,10.1,69,0.00,,SKC,0.00,VWS V13.01,2013-02-09 20:35:00,
2013-02-09 14:36:00,65.3,54.9,30.00,SE,133,6.3,8.1,69,0.00,,SKC,0.00,VWS V13.01,2013-02-09 20:36:00,
2013-02-09 14:37:00,65.3,54.9,30.00,ESE,105,3.1,10.1,69,0.00,,SKC,0.00,VWS V13.01,2013-02-09 20:37:00,
2013-02-09 14:38:00,65.3,55.3,30.00,East,90,5.4,7.6,70,0.00,,SKC,0.00,VWS V13.01,2013-02-09 20:38:00,
2013-02-09 14:39:00,65.3,54.9,30.00,ESE,105,5.4,5.4,69,0.00,,SKC,0.00,VWS V13.01,2013-02-09 20:39:00,
2013-02-09 14:40:00,65.3,55.3,30.00,SSE,154,5.8,7.6,70,0.00,,SKC,0.00,VWS V13.01,2013-02-09 20:40:00,
2013-02-09 14:41:00,65.3,55.3,30.00,East,87,7.6,7.6,70,0.00,,SKC,0.00,VWS V13.01,2013-02-09 20:41:00,
2013-02-09 14:42:00,65.1,54.7,30.00,ESE,121,8.1,9.2,69,0.00,,SKC,0.00,VWS V13.01,2013-02-09 20:42:00,
2013-02-09 14:43:00,65.1,54.7,30.00,East,98,8.7,8.7,69,0.00,,SKC,0.00,VWS V13.01,2013-02-09 20:43:00,
2013-02-09 14:44:00,65.1,54.7,30.00,ESE,113,5.8,8.7,69,0.00,,SKC,0.00,VWS V13.01,2013-02-09 20:44:00,
2013-02-09 14:45:00,65.3,55.3,30.00,SE,143,8.3,8.7,70,0.00,,SKC,0.00,VWS V13.01,2013-02-09 20:45:00,
2013-02-09 14:46:00,65.1,54.3,30.00,SE,139,5.8,8.3,68,0.00,,SKC,0.00,VWS V13.01,2013-02-09 20:46:00,
2013-02-09 14:47:00,65.3,54.5,30.00,East,100,4.0,8.1,68,0.00,,SKC,0.00,VWS V13.01,2013-02-09 20:47:00,
2013-02-09 14:48:00,65.3,54.5,30.00,SSE,161,6.3,9.6,68,0.00,,SKC,0.00,VWS V13.01,2013-02-09 20:48:00,
2013-02-09 14:49:00,65.3,54.9,30.00,East,101,5.4,8.7,69,0.00,,SKC,0.00,VWS V13.01,2013-02-09 20:49:00,
2013-02-09 14:50:00,65.3,54.9,30.00,ENE,69,8.1,8.1,69,0.00,,SKC,0.00,VWS V13.01,2013-02-09 20:50:00,
2013-02-09 14:51:00,65.3,54.9,30.00,East,99,8.3,8.3,69,0.00,,SKC,0.00,VWS V13.01,2013-02-09 20:51:00,
2013-02-09 14:52:00,65.1,54.7,30.00,East,82,5.4,8.3,69,0.00,,SKC,0.00,VWS V13.01,2013-02-09 20:52:00,
2013-02-09 14:53:00,65.1,54.7,30.00,East,80,8.3,8.3,69,0.00,,SKC,0.00,VWS V13.01,2013-02-09 20:53:00,
2013-02-09 14:54:00,64.9,54.5,30.00,ESE,118,3.1,8.3,69,0.00,,SKC,0.00,VWS V13.01,2013-02-09 20:54:00,
2013-02-09 14:55:00,64.9,54.5,30.00,ESE,107,3.6,6.3,69,0.00,,SKC,0.00,VWS V13.01,2013-02-09 20:55:00,
2013-02-09 14:56:00,64.8,54.4,30.00,SE,130,6.3,8.3,69,0.00,,SKC,0.00,VWS V13.01,2013-02-09 20:56:00,
2013-02-09 14:57:00,64.8,54.8,30.00,ENE,68,4.9,6.3,70,0.00,,SKC,0.00,VWS V13.01,2013-02-09 20:57:00,
2013-02-09 14:58:00,64.8,54.8,30.00,SSE,163,4.0,6.3,70,0.00,,SKC,0.00,VWS V13.01,2013-02-09 20:58:00,
2013-02-09 14:59:00,64.8,54.8,30.00,South,178,5.4,10.5,70,0.00,,SKC,0.00,VWS V13.01,2013-02-09 20:59:00,
2013-02-09 15:00:00,64.8,54.4,30.00,SE,129,3.6,8.7,69,0.00,,SKC,0.00,VWS V13.01,2013-02-09 21:00:00,
2013-02-09 15:01:00,64.9,54.5,30.00,East,100,6.7,6.7,69,0.00,,SKC,0.00,VWS V13.01,2013-02-09 21:01:00,
2013-02-09 15:02:00,64.9,54.5,30.00,ENE,76,7.6,7.6,69,0.00,,SKC,0.00,VWS V13.01,2013-02-09 21:02:00,
2013-02-09 15:03:00,64.9,54.9,30.00,SE,128,8.1,8.1,70,0.00,,SKC,0.00,VWS V13.01,2013-02-09 21:03:00,
2013-02-09 15:04:00,64.9,55.3,30.00,ESE,106,3.6,8.1,71,0.00,,SKC,0.00,VWS V13.01,2013-02-09 21:04:00,
2013-02-09 15:05:00,64.8,55.2,30.00,ESE,102,8.7,8.7,71,0.00,,SKC,0.00,VWS V13.01,2013-02-09 21:05:00,
2013-02-09 15:06:00,64.8,54.8,30.00,SE,130,10.5,10.5,70,0.00,,SKC,0.00,VWS V13.01,2013-02-09 21:06:00,
2013-02-09 15:07:00,64.6,54.2,30.00,ESE,105,11.4,11.4,69,0.00,,SKC,0.00,VWS V13.01,2013-02-09 21:07:00,
2013-02-09 15:08:00,64.4,54.0,30.00,ESE,102,6.3,11.4,69,0.00,,SKC,0.00,VWS V13.01,2013-02-09 21:08:00,
2013-02-09 15:09:00,64.4,54.0,30.00,SE,136,8.3,8.3,69,0.00,,SKC,0.00,VWS V13.01,2013-02-09 21:09:00,
2013-02-09 15:10:00,64.4,54.4,30.00,SSE,151,5.4,8.7,70,0.00,,SKC,0.00,VWS V13.01,2013-02-09 21:10:00,
2013-02-09 15:11:00,64.2,54.2,30.00,SSE,149,8.1,8.3,70,0.00,,SKC,0.00,VWS V13.01,2013-02-09 21:11:00,
2013-02-09 15:12:00,64.0,54.1,30.00,ESE,108,8.1,8.1,70,0.00,,SKC,0.00,VWS V13.01,2013-02-09 21:12:00,
2013-02-09 15:13:00,63.9,53.9,30.00,SE,146,5.8,8.1,70,0.00,,SKC,0.00,VWS V13.01,2013-02-09 21:13:00,
2013-02-09 15:14:00,63.9,53.9,30.00,ESE,118,8.1,8.1,70,0.00,,SKC,0.00,VWS V13.01,2013-02-09 21:14:00,
2013-02-09 15:15:00,63.9,54.3,30.00,East,100,2.2,8.1,71,0.00,,SKC,0.00,VWS V13.01,2013-02-09 21:15:00,
2013-02-09 15:16:00,63.7,54.5,30.00,ESE,118,9.6,9.6,72,0.00,,SKC,0.00,VWS V13.01,2013-02-09 21:16:00,
2013-02-09 15:17:00,63.7,54.1,30.00,ESE,110,8.1,9.6,71,0.00,,SKC,0.00,VWS V13.01,2013-02-09 21:17:00,
2013-02-09 15:18:00,63.7,54.5,30.00,SE,125,6.3,8.1,72,0.00,,SKC,0.00,VWS V13.01,2013-02-09 21:18:00,
2013-02-09 15:19:00,63.5,53.9,30.00,SSE,166,5.4,7.6,71,0.00,,SKC,0.00,VWS V13.01,2013-02-09 21:19:00,
2013-02-09 15:20:00,63.5,54.3,30.00,South,181,4.9,8.7,72,0.00,,SKC,0.00,VWS V13.01,2013-02-09 21:20:00,
2013-02-09 15:21:00,63.5,54.7,30.00,SE,133,7.6,7.6,73,0.00,,SKC,0.00,VWS V13.01,2013-02-09 21:21:00,
2013-02-09 15:22:00,63.3,54.5,30.00,ESE,116,5.4,7.6,73,0.00,,SKC,0.00,VWS V13.01,2013-02-09 21:22:00,
2013-02-09 15:23:00,63.3,54.5,30.00,East,92,7.2,10.1,73,0.00,,SKC,0.00,VWS V13.01,2013-02-09 21:23:00,
2013-02-09 15:24:00,63.3,54.5,30.00,ESE,119,4.0,7.2,73,0.00,,SKC,0.00,VWS V13.01,2013-02-09 21:24:00,
2013-02-09 15:25:00,63.3,54.9,30.00,SE,132,6.3,6.3,74,0.00,,SKC,0.00,VWS V13.01,2013-02-09 21:25:00,
2013-02-09 15:26:00,63.3,55.3,30.00,SE,126,8.7,10.1,75,0.00,,SKC,0.00,VWS V13.01,2013-02-09 21:26:00,
2013-02-09 15:27:00,63.1,55.1,30.00,ESE,114,3.6,8.7,75,0.00,,SKC,0.00,VWS V13.01,2013-02-09 21:27:00,
2013-02-09 15:28:00,63.1,54.3,30.00,SE,135,9.2,10.5,73,0.00,,SKC,0.00,VWS V13.01,2013-02-09 21:28:00,
2013-02-09 15:29:00,63.0,54.5,30.00,ESE,107,10.5,10.5,74,0.00,,SKC,0.00,VWS V13.01,2013-02-09 21:29:00,
2013-02-09 15:30:00,62.8,54.4,30.00,ESE,116,8.1,10.5,74,0.00,,SKC,0.00,VWS V13.01,2013-02-09 21:30:00,
2013-02-09 15:31:00,62.8,54.8,30.00,SE,143,5.8,8.1,75,0.00,,SKC,0.00,VWS V13.01,2013-02-09 21:31:00,
2013-02-09 15:32:00,62.6,54.6,30.00,SE,144,8.3,8.3,75,0.00,,SKC,0.00,VWS V13.01,2013-02-09 21:32:00,
2013-02-09 15:33:00,62.4,54.4,30.00,East,101,7.6,8.3,75,0.00,,SKC,0.00,VWS V13.01,2013-02-09 21:33:00,
2013-02-09 15:34:00,62.2,54.6,30.00,SE,124,8.1,8.3,76,0.00,,SKC,0.00,VWS V13.01,2013-02-09 21:34:00,
2013-02-09 15:35:00,62.2,54.6,30.00,ESE,113,8.1,8.1,76,0.00,,SKC,0.00,VWS V13.01,2013-02-09 21:35:00,
2013-02-09 15:36:00,62.1,55.1,30.00,ESE,122,6.3,8.1,78,0.00,,SKC,0.00,VWS V13.01,2013-02-09 21:36:00,
2013-02-09 15:37:00,62.1,55.1,30.00,SE,137,4.5,6.3,78,0.00,,SKC,0.00,VWS V13.01,2013-02-09 21:37:00,
2013-02-09 15:38:00,62.1,55.1,30.00,ESE,116,8.1,8.1,78,0.00,,SKC,0.00,VWS V13.01,2013-02-09 21:38:00,
2013-02-09 15:39:00,62.1,55.1,30.00,ENE,61,8.3,8.3,78,0.00,,SKC,0.00,VWS V13.01,2013-02-09 21:39:00,
2013-02-09 15:40:00,62.1,55.1,30.00,East,81,8.7,8.7,78,0.00,,SKC,0.00,VWS V13.01,2013-02-09 21:40:00,
2013-02-09 15:41:00,62.1,55.1,30.00,South,172,7.6,8.7,78,0.00,,SKC,0.00,VWS V13.01,2013-02-09 21:41:00,
2013-02-09 15:42:00,62.1,55.1,30.00,ESE,119,5.4,7.6,78,0.00,,SKC,0.00,VWS V13.01,2013-02-09 21:42:00,
2013-02-09 15:43:00,62.2,55.3,30.00,East,91,5.8,6.7,78,0.00,,SKC,0.00,VWS V13.01,2013-02-09 21:43:00,
2013-02-09 17:07:00,60.4,55.3,29.97,ESE,111,2.7,2.7,83,0.00,,SKC,0.00,VWS V13.01,2013-02-09 23:07:00,
2013-02-09 17:12:00,60.4,55.6,30.00,East,93,5.4,5.4,84,0.00,,SKC,0.00,VWS V13.01,2013-02-09 23:12:00,
2013-02-09 17:17:00,60.4,55.9,30.00,East,98,3.6,4.0,85,0.00,,SKC,0.00,VWS V13.01,2013-02-09 23:17:00,
2013-02-09 17:22:00,60.6,56.1,30.00,East,99,3.6,7.2,85,0.00,,SKC,0.00,VWS V13.01,2013-02-09 23:22:00,
2013-02-09 17:27:00,60.6,56.1,30.00,ESE,110,5.8,10.1,85,0.00,,SKC,0.00,VWS V13.01,2013-02-09 23:27:00,
2013-02-09 17:32:00,60.6,56.1,30.00,ESE,116,4.5,5.4,85,0.00,,SKC,0.00,VWS V13.01,2013-02-09 23:32:00,
2013-02-09 17:37:00,60.6,56.1,30.00,ESE,110,8.7,8.7,85,0.00,,SKC,0.00,VWS V13.01,2013-02-09 23:37:00,
2013-02-09 17:42:00,60.6,56.7,30.00,East,100,3.6,4.9,87,0.00,,SKC,0.00,VWS V13.01,2013-02-09 23:42:00,
2013-02-09 17:47:00,60.6,57.0,30.00,East,96,5.4,5.8,88,0.00,,SKC,0.00,VWS V13.01,2013-02-09 23:47:00,
2013-02-09 17:52:00,60.6,57.0,30.00,ESE,119,8.1,8.1,88,0.00,,SKC,0.00,VWS V13.01,2013-02-09 23:52:00,
2013-02-09 17:57:00,60.6,56.7,29.97,NE,43,6.3,6.3,87,0.00,,SKC,0.00,VWS V13.01,2013-02-09 23:57:00,
2013-02-09 18:02:00,60.6,56.7,29.97,SE,143,8.7,8.7,87,0.00,,SKC,0.00,VWS V13.01,2013-02-10 00:02:00,
2013-02-09 18:07:00,60.8,57.2,29.97,ESE,111,4.0,11.0,88,0.00,,SKC,0.00,VWS V13.01,2013-02-10 00:07:00,
2013-02-09 18:12:00,60.8,57.2,30.00,SE,137,3.6,8.1,88,0.00,,SKC,0.00,VWS V13.01,2013-02-10 00:12:00,
2013-02-09 18:17:00,60.8,57.2,30.00,SE,133,3.6,5.4,88,0.00,,SKC,0.00,VWS V13.01,2013-02-10 00:17:00,
2013-02-09 18:22:00,60.8,57.2,30.00,ESE,121,6.3,6.3,88,0.00,,SKC,0.00,VWS V13.01,2013-02-10 00:22:00,
2013-02-09 18:27:00,61.0,57.7,30.00,SE,137,3.6,6.3,89,0.00,,SKC,0.00,VWS V13.01,2013-02-10 00:27:00,
2013-02-09 18:32:00,60.8,57.5,30.00,East,90,7.6,7.6,89,0.00,,SKC,0.00,VWS V13.01,2013-02-10 00:32:00,
2013-02-09 18:36:00,60.6,57.7,30.00,SE,126,3.6,6.7,90,0.00,,SKC,0.00,VWS V13.01,2013-02-10 00:36:00,
2013-02-09 18:41:00,60.4,57.8,30.00,East,98,4.0,8.1,91,0.00,,SKC,0.00,VWS V13.01,2013-02-10 00:41:00,
2013-02-09 18:46:00,60.3,57.9,30.00,ESE,103,5.4,7.6,92,0.00,,SKC,0.00,VWS V13.01,2013-02-10 00:46:00,
2013-02-09 18:51:00,60.1,58.0,30.00,ESE,116,4.0,5.8,93,0.00,,SKC,0.00,VWS V13.01,2013-02-10 00:51:00,
2013-02-09 18:56:00,60.1,58.7,29.97,ESE,106,8.1,8.1,95,0.00,,SKC,0.00,VWS V13.01,2013-02-10 00:56:00,
2013-02-09 19:01:00,60.3,58.8,29.97,SE,139,3.1,4.0,95,0.00,,SKC,0.00,VWS V13.01,2013-02-10 01:01:00,
2013-02-09 19:06:00,60.3,58.8,29.97,SE,129,5.8,7.6,95,0.00,,SKC,0.00,VWS V13.01,2013-02-10 01:06:00,
2013-02-09 19:11:00,60.3,59.1,29.97,ESE,111,7.6,7.6,96,0.00,,SKC,0.00,VWS V13.01,2013-02-10 01:11:00,
2013-02-09 19:16:00,60.4,59.3,29.97,SE,137,2.7,3.1,96,0.00,,SKC,0.00,VWS V13.01,2013-02-10 01:16:00,
2013-02-09 19:21:00,60.4,59.6,29.97,SE,131,3.6,5.4,97,0.00,,SKC,0.00,VWS V13.01,2013-02-10 01:21:00,
2013-02-09 19:26:00,60.4,59.6,30.00,ESE,113,5.4,6.3,97,0.00,,SKC,0.00,VWS V13.01,2013-02-10 01:26:00,
2013-02-09 19:31:00,60.4,59.6,30.00,ESE,107,5.4,8.3,97,0.00,,SKC,0.00,VWS V13.01,2013-02-10 01:31:00,
2013-02-09 19:36:00,60.4,59.6,30.00,SE,131,3.6,5.4,97,0.00,,SKC,0.00,VWS V13.01,2013-02-10 01:36:00,
2013-02-09 19:41:00,60.4,59.9,30.00,East,90,8.3,10.5,98,0.00,,SKC,0.00,VWS V13.01,2013-02-10 01:41:00,
2013-02-09 19:46:00,60.4,59.9,30.00,ESE,122,3.6,6.3,98,0.00,,SKC,0.00,VWS V13.01,2013-02-10 01:46:00,
2013-02-09 19:51:00,60.4,59.9,30.00,South,184,5.8,8.3,98,0.00,,SKC,0.00,VWS V13.01,2013-02-10 01:51:00,
2013-02-09 19:56:00,60.4,59.9,29.97,East,80,5.8,5.8,98,0.00,,SKC,0.00,VWS V13.01,2013-02-10 01:56:00,
2013-02-09 20:01:00,60.4,59.6,29.97,ESE,110,10.1,10.1,97,0.00,,SKC,0.00,VWS V13.01,2013-02-10 02:01:00,
2013-02-09 20:06:00,60.4,59.9,29.97,ESE,117,5.4,8.1,98,0.00,,SKC,0.00,VWS V13.01,2013-02-10 02:06:00,
2013-02-09 20:11:00,60.3,59.7,29.97,East,101,3.1,5.8,98,0.00,,SKC,0.00,VWS V13.01,2013-02-10 02:11:00,
2013-02-09 20:16:00,60.3,59.7,29.97,SE,139,10.1,10.1,98,0.00,,SKC,0.00,VWS V13.01,2013-02-10 02:16:00,
2013-02-09 20:21:00,60.4,60.2,29.97,SE,129,6.3,6.3,99,0.00,,SKC,0.00,VWS V13.01,2013-02-10 02:21:00,
2013-02-09 20:26:00,60.6,60.3,30.00,ESE,110,6.7,6.7,99,0.00,,SKC,0.00,VWS V13.01,2013-02-10 02:26:00,
2013-02-09 20:31:00,60.6,60.3,30.00,SE,133,4.0,4.9,99,0.00,,SKC,0.00,VWS V13.01,2013-02-10 02:31:00,
2013-02-09 20:36:00,60.8,60.0,30.00,East,98,10.1,10.1,97,0.00,,SKC,0.00,VWS V13.01,2013-02-10 02:36:00,
2013-02-09 20:41:00,60.8,59.7,29.97,SE,124,6.3,6.3,96,0.00,,SKC,0.00,VWS V13.01,2013-02-10 02:41:00,
2013-02-09 20:46:00,60.8,58.8,29.97,SSE,147,6.3,6.3,93,0.00,,SKC,0.00,VWS V13.01,2013-02-10 02:46:00,
2013-02-09 20:51:00,60.8,58.8,29.97,ESE,107,4.9,5.4,93,0.00,,SKC,0.00,VWS V13.01,2013-02-10 02:51:00,
2013-02-09 20:56:00,60.8,58.8,29.97,ESE,112,10.5,10.5,93,0.00,,SKC,0.00,VWS V13.01,2013-02-10 02:56:00,
2013-02-09 21:01:00,60.8,58.5,29.97,ESE,119,4.9,8.3,92,0.00,,SKC,0.00,VWS V13.01,2013-02-10 03:01:00,
2013-02-09 21:06:00,60.8,58.8,29.97,East,81,5.4,5.4,93,0.00,,SKC,0.00,VWS V13.01,2013-02-10 03:06:00,
2013-02-09 21:11:00,60.6,58.3,29.97,ESE,110,4.0,4.0,92,0.00,,SKC,0.00,VWS V13.01,2013-02-10 03:11:00,
2013-02-09 21:16:00,60.6,58.0,29.97,SSE,149,3.6,5.4,91,0.00,,SKC,0.00,VWS V13.01,2013-02-10 03:16:00,
2013-02-09 21:21:00,60.6,58.0,29.97,South,176,5.8,7.2,91,0.00,,SKC,0.00,VWS V13.01,2013-02-10 03:21:00,
2013-02-09 21:26:00,60.6,58.0,29.97,SE,129,8.7,8.7,91,0.00,,SKC,0.00,VWS V13.01,2013-02-10 03:26:00,
2013-02-09 21:31:00,60.6,58.0,29.97,ESE,119,3.1,4.9,91,0.00,,SKC,0.00,VWS V13.01,2013-02-10 03:31:00,
2013-02-09 21:36:00,60.6,58.3,29.97,SSE,150,5.8,5.8,92,0.00,,SKC,0.00,VWS V13.01,2013-02-10 03:36:00,
2013-02-09 21:41:00,60.8,58.5,29.97,SE,124,2.7,6.3,92,0.00,,SKC,0.00,VWS V13.01,2013-02-10 03:41:00,
2013-02-09 21:46:00,60.8,58.5,29.97,SE,132,5.4,6.3,92,0.00,,SKC,0.00,VWS V13.01,2013-02-10 03:46:00,
2013-02-09 21:51:00,60.8,58.5,29.97,ESE,108,3.6,3.6,92,0.00,,SKC,0.00,VWS V13.01,2013-02-10 03:51:00,
2013-02-09 21:56:00,60.8,58.5,29.97,East,79,4.9,5.4,92,0.00,,SKC,0.00,VWS V13.01,2013-02-10 03:56:00,
2013-02-09 22:01:00,60.8,58.5,29.97,ESE,115,2.7,3.6,92,0.00,,SKC,0.00,VWS V13.01,2013-02-10 04:01:00,
2013-02-09 22:06:00,60.8,58.2,29.97,SE,124,5.8,6.3,91,0.00,,SKC,0.00,VWS V13.01,2013-02-10 04:06:00,
2013-02-09 22:11:00,60.8,57.8,29.97,East,94,3.6,6.7,90,0.00,,SKC,0.00,VWS V13.01,2013-02-10 04:11:00,
2013-02-09 22:16:00,60.8,58.2,29.97,SSE,156,6.3,6.3,91,0.00,,SKC,0.00,VWS V13.01,2013-02-10 04:16:00,
2013-02-09 22:21:00,61.0,58.6,29.97,SE,139,2.7,3.1,92,0.00,,SKC,0.00,VWS V13.01,2013-02-10 04:21:00,
2013-02-09 22:26:00,61.2,58.8,29.97,ESE,108,6.7,7.6,92,0.00,,SKC,0.00,VWS V13.01,2013-02-10 04:26:00,
2013-02-09 22:31:00,61.2,58.8,29.97,East,98,2.2,6.3,92,0.00,,SKC,0.00,VWS V13.01,2013-02-10 04:31:00,
2013-02-09 22:36:00,61.3,59.0,29.97,ESE,119,6.3,6.3,92,0.00,,SKC,0.00,VWS V13.01,2013-02-10 04:36:00,
2013-02-09 22:41:00,61.3,58.7,29.97,East,80,8.1,12.3,91,0.00,,SKC,0.00,VWS V13.01,2013-02-10 04:41:00,
2013-02-09 22:46:00,61.3,58.7,29.97,SE,143,8.3,8.3,91,0.00,,SKC,0.00,VWS V13.01,2013-02-10 04:46:00,
2013-02-09 22:51:00,61.5,58.9,29.97,East,89,2.7,3.6,91,0.00,,SKC,0.00,VWS V13.01,2013-02-10 04:51:00,
2013-02-09 22:56:00,61.5,59.2,29.97,ESE,123,7.6,7.6,92,0.00,,SKC,0.00,VWS V13.01,2013-02-10 04:56:00,
2013-02-09 23:00:00,61.5,59.2,29.97,ESE,115,4.0,8.1,92,0.00,,SKC,0.00,VWS V13.01,2013-02-10 05:00:00,
2013-02-09 23:05:00,61.7,59.7,29.97,SE,141,3.1,5.4,93,0.00,,SKC,0.00,VWS V13.01,2013-02-10 05:05:00,
2013-02-09 23:10:00,61.7,59.7,29.97,ESE,119,3.6,9.6,93,0.00,,SKC,0.00,VWS V13.01,2013-02-10 05:10:00,
2013-02-09 23:15:00,61.7,60.0,29.97,SE,133,6.7,6.7,94,0.00,,SKC,0.00,VWS V13.01,2013-02-10 05:15:00,
2013-02-09 23:20:00,61.9,60.1,29.97,SE,126,5.4,5.4,94,0.00,,SKC,0.00,VWS V13.01,2013-02-10 05:20:00,
2013-02-09 23:25:00,61.9,60.4,29.94,ESE,123,4.9,7.6,95,0.00,,SKC,0.00,VWS V13.01,2013-02-10 05:25:00,
2013-02-09 23:30:00,61.9,60.7,29.94,ESE,112,5.4,5.4,96,0.00,,SKC,0.00,VWS V13.01,2013-02-10 05:30:00,
2013-02-09 23:35:00,61.9,60.7,29.94,East,97,7.2,7.2,96,0.00,,SKC,0.00,VWS V13.01,2013-02-10 05:35:00,
2013-02-09 23:40:00,62.1,61.5,29.94,ESE,108,3.1,5.8,98,0.00,,SKC,0.00,VWS V13.01,2013-02-10 05:40:00,
2013-02-09 23:45:00,62.1,61.5,29.94,ESE,115,4.0,8.3,98,0.00,,SKC,0.00,VWS V13.01,2013-02-10 05:45:00,
2013-02-09 23:50:00,62.2,61.7,29.94,ENE,77,5.4,5.8,98,0.00,,SKC,0.00,VWS V13.01,2013-02-10 05:50:00,
2013-02-09 23:55:00,62.2,61.7,29.94,ESE,111,6.3,8.1,98,0.00,,SKC,0.00,VWS V13.01,2013-02-10 05:55:00,